     2              OBSERVATION DATA    GPS                 RINEX VERSION / TYPE
ASHTORIN MIT 08                                             PGM / RUN BY / DATE
                                                            COMMENT
Original Marker Name: CALI                                  COMMENT
Campaign Name: STRC/NBC 1997                                COMMENT
4-Character Station Name: CALI                              COMMENT
6-Character Antenna Code: DMRCHT                            COMMENT
Vertical Measurement Point: BCR                             COMMENT
Vertical Offset to Rinex Ref. Point: 0.0349                 COMMENT
Radial Measurement Point: ECF                               COMMENT
Radial Offset to Rinex Ref. Point: 0.1896                   COMMENT
Antenna Height from Field Measurement: 1.8320 m             COMMENT
Additional Antenna Identification Info.:                    COMMENT
Turborogue and Ashtech Choke Ring                           COMMENT
New site.                                                   COMMENT
Original XYZ: 0.0000 0.0000 0.0000                          COMMENT
New XYZ position is based on association with SCEC monument COMMENT
E1D0I4J4+0011. Position of that monument is believed to be  COMMENT
valid to within 1 m horizontally; vertical accuracy         COMMENT
should be no worse than 3-times this value.                 COMMENT
                                                            COMMENT
Revised Rinex header created by UCSD GPS archive for        COMMENT
GSAC on 12-Apr-1999 (1999:102) 05:26:32 GMT                 COMMENT
For assistance contact dagnew@ucsd.edu or hjohnson@ucsd.edu COMMENT
                                                            COMMENT
CALIPATRIA 1934 1967                                        MARKER NAME
                                                            MARKER NUMBER
DBM UNAVCO                                                  OBSERVER / AGENCY
385 ASHTECH Z12-XII3 1E951D0                                REC # / TYPE / VERS
653 DORNE-MARGOL. TYPE T                                    ANT # / TYPE
 -2301466.0000 -4823214.0000  3469612.0000                  APPROX POSITION XYZ
        1.7873        0.0000        0.0000                  ANTENNA: DELTA H/E/N
     1     1     0                                          WAVELENGTH FACT L1/2
     7    L1    L2    C1    P1    P2    D1    D2            # / TYPES OF OBSERV
    30                                                      INTERVAL
  1997     3     7    22    10    0.000000                  TIME OF FIRST OBS
  1997     3     7    23    59   30.000000                  TIME OF LAST OBS
     0                                                      # OF SATELLITES
                                                            END OF HEADER
 97  3  7 22 10  0.0000000  0  6 26  2  4 27  7  9                   0.000000000
     86635.26119     63112.92356  23628145.079    23628144.5965   23628150.9495
        -0.000          -0.000
     16117.03419     11609.17558  21702794.008    21702793.1195   21702798.2265
        -0.000          -0.000
   -267991.23619   -194598.44357  22058591.432    22058591.3455   22058596.8255
        -0.000          -0.000
    234118.89419    170241.35156  23559822.509    23559823.0545   23559828.4075
        -0.000          -0.000
     36589.53519     26482.56959  20690813.514    20690812.6385   20690817.7955
        -0.000          -0.000
   -266739.68819   -196131.50356  23149318.531    23149318.3815   23149323.7215
        -0.000          -0.000
 97  3  7 22 10 30.0000000  0  6 26  2  4 27  7  9                   0.000308663
    119875.053 9     89014.02946  23634469.235    23634469.9774   23634476.2054
        -0.000          -0.000
     22123.823 9     16289.79248  21703936.860    21703936.0884   21703941.2314
        -0.000          -0.000
   -377117.115 9   -279631.56347  22037826.177    22037825.8104   22037831.0284
        -0.000          -0.000
    322635.780 9    239215.50846  23576667.143    23576667.3734   23576672.7734
        -0.000          -0.000
     49906.673 9     36859.56749  20693348.022    20693346.8944   20693352.0034
        -0.000          -0.000
   -376861.839 9   -281940.91947  23128362.922    23128362.8274   23128368.3114
        -0.000          -0.000
 97  3  7 22 11  0.0000000  3  2
CALI                                                        MARKER NAME
--> THIS IS THE START OF A NEW SITE <---                    COMMENT
 97  3  7 22 11  0.0000000  0  6 26  2  4 27  7  9                   0.000293652
    153407.332 9    115143.04946  23640850.443    23640850.9194   23640857.2614
        -0.000          -0.000
     28347.211 9     21139.18448  21705120.772    21705120.2684   21705125.4614
        -0.000          -0.000
   -485918.175 9   -364411.58247  22017121.932    22017121.6744   22017126.8354
        -0.000          -0.000
    411325.895 9    308324.61146  23593544.139    23593544.1094   23593549.7644
        -0.000          -0.000
     63501.965 9     47453.31249  20695934.805    20695933.9834   20695939.1404
        -0.000          -0.000
   -486725.031 9   -367548.55747  23107456.851    23107456.7204   23107462.0744
        -0.000          -0.000
 97  3  7 22 11 30.0000000  0  7 26  2 24  4 27  7  9                0.000278625
    187203.212 9    141477.47346  23647281.539    23647282.0574   23647288.3494
        -0.000          -0.000
     34786.601 9     26156.88648  21706346.187    21706345.7104   21706350.8404
        -0.000          -0.000
   -382258.66418   -255581.73752         0.000           0.0005          0.0005
        -0.000          -0.000
   -594392.803 9   -448937.23547  21996479.725    21996479.7244   21996484.7854
        -0.000          -0.000
    500171.948 9    377555.25246  23610451.132    23610450.8654   23610456.7374
        -0.000          -0.000
     77379.872 9     58267.27449  20698575.520    20698574.8554   20698580.0594
        -0.000          -0.000
   -596330.323 9   -452955.22747  23086599.495    23086599.5904   23086604.8464
        -0.000          -0.000
 97  3  7 22 12  0.0000000  0  7 26  2 24  4 27  7  9                0.000263563
    221241.125 9    168000.48746  23653758.985    23653759.3134   23653765.6014
        -0.000          -0.000
     41424.137 9     31328.98848  21707609.357    21707608.8654   21707614.0174
        -0.000          -0.000
   -514797.69118   -358858.71954         0.000           0.0005   24367694.3865
        -0.000          -0.000
   -702577.952 9   -533237.32347  21975892.757    21975892.8264   21975897.8384
        -0.000          -0.000
    589165.620 9    446900.94445  23627386.127    23627385.8114   23627391.5694
        -0.000          -0.000
     91533.989 9     69296.46749  20701268.950    20701268.2804   20701273.5064
        -0.000          -0.000
   -705690.073 9   -538170.57147  23065789.003    23065789.1164   23065794.3904
        -0.000          -0.000
 97  3  7 22 12 30.0000000  0  7 26  2 24  4 27  7  9                0.000248522
    255548.098 9    194733.18246  23660287.503    23660287.7944   23660293.9654
        -0.000          -0.000
     48293.713 9     36681.90248  21708916.587    21708916.0504   21708921.4004
        -0.000          -0.000
   -647324.82618   -462126.45545  24342469.695    24342469.1895   24342479.2014
        -0.000          -0.000
   -810440.905 9   -617286.34648  21955367.029    21955367.1864   21955372.2044
        -0.000          -0.000
    678329.294 9    516379.10945  23644353.252    23644353.0854   23644358.8624
        -0.000          -0.000
    105986.652 9     80558.29849  20704019.173    20704018.5564   20704023.8574
        -0.000          -0.000
   -814764.434 9   -623163.53447  23045032.969    23045032.9964   23045038.2694
        -0.000          -0.000
 97  3  7 22 13  0.0000000  0  7 26  2 24  4 27  7  9                0.000233505
    290152.766 9    221697.83546  23666872.581    23666872.8454   23666878.9704
        -0.000          -0.000
     55425.253 9     42238.95248  21710273.552    21710273.0614   21710278.5794
        -0.000          -0.000
   -779794.829 8   -565349.82745  24317261.483    24317262.0404   24317269.8474
        -0.000          -0.000
   -917928.549 9   -701042.91748  21934912.733    21934912.9464   21934918.0264
        -0.000          -0.000
    767689.546 8    586010.43046  23661357.931    23661357.8534   23661363.7544
        -0.000          -0.000
    120771.416 9     92078.90249  20706832.556    20706831.9694   20706837.3404
        -0.000          -0.000
   -923523.040 9   -707910.45847  23024336.923    23024336.9534   23024342.2624
        -0.000          -0.000
 97  3  7 22 13 30.0000000  0  7 26  2 24  4 27  7  9                0.000218497
    325055.337 9    248894.60346  23673514.353    23673514.6574   23673520.7614
        -0.000          -0.000
     62812.909 9     47995.56948  21711679.392    21711678.9174   21711684.4134
        -0.000          -0.000
   -912186.645 8   -668512.22245  24292068.172    24292068.5714   24292076.0894
        -0.000          -0.000
  -1025033.542 9   -784501.31948  21914531.259    21914531.4664   21914536.6134
        -0.000          -0.000
    857239.270 8    655789.35545  23678398.448    23678398.4454   23678404.6774
        -0.000          -0.000
    135887.478 9    103857.66749  20709709.054    20709708.4774   20709713.8214
        -0.000          -0.000
  -1031988.525 9   -792428.96547  23003696.598    23003696.6624   23003702.0144
        -0.000          -0.000
 97  3  7 22 14  0.0000000  0  7 26  2 24  4 27  7  9                0.000203509
    360275.843 9    276339.13546  23680216.683    23680216.9664   23680223.0384
        -0.000          -0.000
     70454.804 9     53950.29148  21713133.607    21713133.1514   21713138.5974
        -0.000          -0.000
  -1044483.117 9   -771600.33245  24266893.148    24266893.3394   24266900.6964
        -0.000          -0.000
  -1131734.785 9   -867645.10548  21894226.599    21894226.8124   21894231.9814
        -0.000          -0.000
    946992.725 8    725727.03546  23695478.188    23695478.0624   23695484.3024
        -0.000          -0.000
    151311.741 9    115876.58049  20712644.233    20712643.6754   20712649.0164
        -0.000          -0.000
  -1140150.634 9   -876711.08147  22983114.094    22983114.1314   22983119.4874
        -0.000          -0.000
 97  3  7 22 14 30.0000000  0  7 26  2 24  4 27  7  9                0.000188554
    395834.768 9    304047.35246  23686983.382    23686983.6624   23686989.6874
        -0.000          -0.000
     78382.125 9     60127.41448  21714642.098    21714641.6464   21714647.1234
        -0.000          -0.000
  -1176668.506 9   -874601.86645  24241739.184    24241739.1334   24241746.5744
        -0.000          -0.000
  -1237970.483 9   -950426.13748  21874010.518    21874010.7974   21874016.0374
        -0.000          -0.000
   1036989.507 9    795854.35646  23712603.989    23712603.8664   23712610.1394
        -0.000          -0.000
    167065.622 9    128152.33749  20715642.137    20715641.5804   20715646.9134
        -0.000          -0.000
  -1247969.238 9   -960725.52847  22962597.030    22962596.9354   22962602.2964
        -0.000          -0.000
 97  3  7 22 15  0.0000000  0  7 26  2 24  4 27  7  9                0.000173634
    431743.112 9    332027.84546  23693816.626    23693816.8324   23693823.0164
        -0.000          -0.000
     86601.920 9     66532.44848  21716206.327    21716205.8144   21716211.3494
        -0.000          -0.000
  -1308750.239 9   -977522.63245  24216604.879    24216604.8834   24216612.0444
        -0.000          -0.000
  -1343718.630 9  -1032827.24848  21853887.309    21853887.5794   21853892.9394
        -0.000          -0.000
   1127251.948 8    866188.70846  23729780.504    23729780.2854   23729786.5734
        -0.000          -0.000
    183158.988 9    140692.62849  20718704.683    20718704.1394   20718709.4324
        -0.000          -0.000
  -1355428.601 9  -1044460.05147  22942148.126    22942147.9624   22942153.4134
        -0.000          -0.000
 97  3  7 22 15 30.0000000  0  7 26  2 24  4 27  7  9                0.000158770
    468009.354 9    360287.23146  23700718.039    23700718.1844   23700724.3944
        -0.000          -0.000
     95139.780 9     73185.32248  21717830.948    21717830.4794   21717836.0834
        -0.000          -0.000
  -1440714.240 9  -1080351.64546  24191493.100    24191492.9684   24191500.0484
        -0.000          -0.000
  -1448976.454 9  -1114846.29348  21833857.365    21833857.6454   21833863.0674
        -0.000          -0.000
   1217786.395 8    936734.95546  23747008.159    23747008.1494   23747014.8354
        -0.000          -0.000
    199599.269 9    153503.23949  20721833.212    20721832.6644   20721837.9224
        -0.000          -0.000
  -1462503.772 9  -1127895.20047  22921772.225    22921772.2174   22921777.6574
        -0.000          -0.000
 97  3  7 22 16  0.0000000  0  7 26  2 24  4 27  7  9                0.000143990
    504620.669 9    388815.49546  23707684.955    23707685.1714   23707691.2714
        -0.000          -0.000
    104003.827 9     80092.37548  21719517.707    21719517.2914   21719522.9284
        -0.000          -0.000
  -1572567.340 9  -1183094.21846  24166402.311    24166402.1884   24166409.2824
        -0.000          -0.000
  -1553744.789 9  -1196483.92448  21813920.607    21813920.8974   21813926.2414
        -0.000          -0.000
   1308606.707 8   1007503.92246  23764290.821    23764290.7634   23764297.6774
        -0.000          -0.000
    216385.987 9    166583.80349  20725027.613    20725027.0724   20725032.2804
        -0.000          -0.000
  -1569169.721 9  -1211011.49547  22901474.489    22901474.4594   22901479.8324
        -0.000          -0.000
 97  3  7 22 16 30.0000000  0  7 26  2 24  4 27  7  9                0.000129300
    541581.152 9    417615.84146  23714718.364    23714718.5614   23714724.5604
        -0.000          -0.000
    113215.014 9     87269.91748  21721270.787    21721270.3174   21721275.8454
        -0.000          -0.000
  -1704305.446 9  -1285747.19146  24141333.328    24141333.1634   24141340.3794
        -0.000          -0.000
  -1658040.383 9  -1277753.19048  21794073.914    21794074.1864   21794079.4474
        -0.000          -0.000
   1399707.501 9   1078491.47846  23781626.758    23781626.8024   23781633.8674
        -0.000          -0.000
    233537.342 9    179948.49849  20728291.436    20728290.8934   20728296.0854
        -0.000          -0.000
  -1675422.528 9  -1293805.83947  22881255.389    22881255.2274   22881260.5304
        -0.000          -0.000
 97  3  7 22 17  0.0000000  0  7 26  2 24  4 27  7  9                0.000114705
    578900.235 9    446695.62246  23721820.029    23721820.1964   23721826.1714
        -0.000          -0.000
    122785.488 9     94727.42148  21723092.049    21723091.5374   21723097.0244
        -0.000          -0.000
  -1835893.437 8  -1388283.17745  24116292.910    24116292.7084   24116299.9554
        -0.000          -0.000
  -1761878.891 9  -1358666.27748  21774314.067    21774314.3664   21774319.5904
        -0.000          -0.000
   1491069.035 9   1149682.21246  23799012.595    23799012.5764   23799019.5034
        -0.000          -0.000
    251058.557 9    193601.39749  20731625.593    20731625.0354   20731630.2474
        -0.000          -0.000
  -1781262.072 9  -1376278.17047  22861114.701    22861114.6094   22861119.8404
        -0.000          -0.000
 97  3  7 22 17 30.0000000  0  7 26  2 24  4 27  7  9                0.000100210
    616571.525 9    476049.83846  23728988.534    23728988.7244   23728994.7844
        -0.000          -0.000
    132726.964 9    102474.02048  21724983.773    21724983.3074   21724988.7834
        -0.000          -0.000
  -1967310.096 9  -1490685.65045  24091285.046    24091284.8214   24091292.0524
        -0.000          -0.000
  -1865263.851 9  -1439225.95848  21754640.570    21754640.8854   21754645.9914
        -0.000          -0.000
   1582686.035 9   1221072.02946  23816446.911    23816446.9664   23816453.7124
        -0.000          -0.000
    268954.968 9    207546.65649  20735031.167    20735030.6474   20735035.8124
        -0.000          -0.000
  -1886688.834 9  -1458428.85347  22841052.560    22841052.5384   22841057.7714
        -0.000          -0.000
 97  3  7 22 18  0.0000000  0  7 26  2 24  4 27  7  9                0.000085810
    654603.154 9    505684.84546  23736225.673    23736226.0134   23736232.0304
        -0.000          -0.000
    143023.386 9    110497.20448  21726943.172    21726942.6914   21726948.0604
        -0.000          -0.000
  -2098560.846 9  -1592958.83645  24066308.718    24066308.6814   24066316.0594
        -0.000          -0.000
  -1968187.255 9  -1519425.98948  21735054.939    21735055.2444   21735060.2434
        -0.000          -0.000
   1674565.275 9   1292666.18646  23833931.062    23833931.1034   23833937.7304
        -0.000          -0.000
    287230.460 9    221787.29849  20738508.882    20738508.3594   20738513.5194
        -0.000          -0.000
  -1991698.323 9  -1540254.39947  22821069.882    22821069.9024   22821075.0694
        -0.000          -0.000
 97  3  7 22 18 30.0000000  0  7 26  2 24  4 27  7  9                0.000071488
    693006.042 9    535609.14846  23743533.539    23743533.8044   23743540.0284
        -0.000          -0.000
    153685.182 9    118805.09148  21728972.143    21728971.6464   21728976.9544
        -0.000          -0.000
  -2229636.598 9  -1695095.67445  24041365.894    24041365.7594   24041373.2394
        -0.000          -0.000
  -2070622.972 9  -1599245.99848  21715562.111    21715562.3794   21715567.3194
        -0.000          -0.000
   1766701.149 9   1364460.35245  23851463.815    23851463.8564   23851470.3764
        -0.000          -0.000
    305905.508 9    236339.29049  20742062.583    20742062.0794   20742067.2374
        -0.000          -0.000
  -2096284.391 9  -1621749.99347  22801167.897    22801167.8804   22801173.0234
        -0.000          -0.000
 97  3  7 22 19  0.0000000  0  7 26  2 24  4 27  7  9                0.000057236
    731761.042 9    565807.80946  23750908.263    23750908.5884   23750914.8244
        -0.000          -0.000
    164709.415 9    127395.39448  21731070.107    21731069.5834   21731074.8734
        -0.000          -0.000
  -2360547.690 9  -1797104.22045  24016454.306    24016454.2354   24016461.7734
        -0.000          -0.000
  -2172540.976 9  -1678662.59048  21696167.760    21696168.0154   21696172.9454
        -0.000          -0.000
   1859105.673 8   1436463.84345  23869047.812    23869047.7424   23869054.2534
        -0.000          -0.000
    324981.856 9    251203.98349  20745692.701    20745692.1964   20745697.3864
        -0.000          -0.000
  -2200446.697 9  -1702915.39347  22781346.610    22781346.5524   22781351.5114
        -0.000          -0.000
 97  3  7 22 19 30.0000000  0  7 26  2 24  4 27  7  9                0.000043062
    770876.328 9    596287.21346  23758351.658    23758351.9854   23758358.2854
        -0.000          -0.000
    176108.806 9    136278.03048  21733239.414    21733238.8624   21733244.1664
        -0.000          -0.000
  -2491302.791 9  -1898991.21245  23991572.471    23991572.3304   23991579.8584
        -0.000          -0.000
  -2273908.544 9  -1757650.27948  21676878.116    21676878.4094   21676883.3304
        -0.000          -0.000
   1951812.785 9   1508703.10045  23886689.273    23886689.4294   23886696.1294
        -0.000          -0.000
    344465.747 9    266386.23449  20749400.425    20749399.9094   20749405.1194
        -0.000          -0.000
  -2304167.225 9  -1783736.55447  22761609.241    22761609.1464   22761614.0864
        -0.000          -0.000
 97  3  7 22 20  0.0000000  0  7 26  2 24  4 27  7  9                0.000028964
    810354.316 9    627049.24546  23765864.193    23765864.4844   23765870.7394
        -0.000          -0.000
    187873.687 9    145445.46748  21735478.184    21735477.5924   21735482.9814
        -0.000          -0.000
  -2621904.152 8  -2000758.42445  23966719.780    23966719.6964   23966727.0514
        -0.000          -0.000
  -2374722.001 9  -1836206.19248  21657694.032    21657694.2904   21657699.2064
        -0.000          -0.000
   2044820.357 8   1581176.46445  23904388.235    23904388.3364   23904395.0944
        -0.000          -0.000
    364347.910 9    281878.83349  20753183.848    20753183.3404   20753188.5234
        -0.000          -0.000
  -2407449.494 9  -1864216.20747  22741955.212    22741955.1424   22741960.1414
        -0.000          -0.000
 97  3  7 22 20 30.0000000  0  7 26  2 24  4 27  7  9                0.000014935
    850186.630 9    658087.36146  23773444.104    23773444.3974   23773450.6814
        -0.000          -0.000
    200016.601 9    154907.47548  21737788.808    21737788.2624   21737793.6614
        -0.000          -0.000
  -2752332.318 8  -2102390.66145  23941899.819    23941899.8184   23941907.2824
        -0.000          -0.000
  -2474972.961 9  -1914323.78848  21638616.872    21638617.1774   21638622.1304
        -0.000          -0.000
   2138125.242 8   1653881.48845  23922143.448    23922143.5864   23922150.5404
        -0.000          -0.000
    384623.319 9    297677.85849  20757042.150    20757041.6394   20757046.8154
        -0.000          -0.000
  -2510306.334 9  -1944364.35647  22722382.166    22722382.1224   22722387.1604
        -0.000          -0.000
 97  3  7 22 21  0.0000000  0  7 26  2 24  4 27  7  9                0.000000997
    890373.865 9    689402.05146  23781091.644    23781091.9334   23781098.1624
        -0.000          -0.000
    212525.224 9    164654.44648  21740169.056    21740168.6144   21740173.9404
        -0.000          -0.000
  -2882572.238 8  -2203876.22245  23917115.755    23917115.8554   23917123.3724
        -0.000          -0.000
  -2574677.972 9  -1992015.97548  21619643.638    21619643.9324   21619648.9004
        -0.000          -0.000
   2231735.179 8   1726824.14045  23939956.717    23939956.7624   23939963.9504
        -0.000          -0.000
    405285.178 9    313778.00649  20760974.007    20760973.4974   20760978.6624
        -0.000          -0.000
  -2612732.279 9  -2024176.74547  22702891.144    22702891.1154   22702896.2094
        -0.000          -0.000
 97  3  7 22 21 30.0000000  0  7 26  2 24  4 27  7  9               -0.000012848
    930928.176 9    721002.78246  23788809.011    23788809.2504   23788815.5474
        -0.000          -0.000
    225390.357 9    174679.21748  21742617.280    21742616.8494   21742622.1394
        -0.000          -0.000
  -3012603.766 9  -2305199.41145  23892371.417    23892371.5464   23892379.1094
        -0.000          -0.000
  -2673850.314 9  -2069293.09048  21600771.764    21600772.0374   21600777.0694
        -0.000          -0.000
   2325630.223 8   1799989.06045  23957824.514    23957824.4334   23957831.4764
        -0.000          -0.000
    426329.291 9    330176.01449  20764978.551    20764978.0554   20764983.1544
        -0.000          -0.000
  -2714719.695 9  -2103647.42547  22683483.596    22683483.5414   22683488.6154
        -0.000          -0.000
 97  3  7 22 21 59.9990000  0  7 26  2 24  4 27  7  9               -0.000026605
    971841.366 9    752883.14946  23796594.534    23796594.8204   23796601.1904
        -0.000          -0.000
    238615.277 9    184984.35048  21745133.984    21745133.4974   21745138.9174
        -0.000          -0.000
  -3142406.843 9  -2406344.56746  23867670.804    23867670.8154   23867678.5804
        -0.000          -0.000
  -2772490.782 9  -2146155.75748  21582001.105    21582001.3914   21582006.4164
        -0.000          -0.000
   2419788.767 9   1873359.34445  23975742.505    23975742.5784   23975749.1354
        -0.000          -0.000
    447758.606 9    346874.18149  20769056.480    20769055.9824   20769061.0504
        -0.000          -0.000
  -2816257.664 9  -2182767.89247  22664161.515    22664161.4684   22664166.5054
        -0.000          -0.000
 97  3  7 22 22 29.9990000  0  7 26  2 24  4 27  7  9               -0.000040273
   1013098.546 9    785031.55046  23804445.708    23804445.9254   23804452.2814
        -0.000          -0.000
    252198.874 9    195568.96548  21747718.872    21747718.3684   21747723.8834
        -0.000          -0.000
  -3271999.275 9  -2507325.61246  23843010.286    23843010.2374   23843017.8984
        -0.000          -0.000
  -2870614.540 9  -2222615.79648  21563328.753    21563329.0584   21563334.1224
        -0.000          -0.000
   2514202.740 9   1946928.62945  23993709.287    23993709.2014   23993715.4744
        -0.000          -0.000
    469577.906 9    363876.23549  20773208.645    20773208.1174   20773213.1614
        -0.000          -0.000
  -2917345.849 9  -2261537.88247  22644925.152    22644925.0354   22644930.0734
        -0.000          -0.000
 97  3  7 22 22 59.9990000  0  7 26  2 24  4 27  7  9               -0.000053859
   1054691.082 9    817441.27746  23812360.474    23812360.7564   23812367.1304
        -0.000          -0.000
    266134.641 9    206427.99848  21750370.731    21750370.2024   21750375.7494
        -0.000          -0.000
  -3401387.512 9  -2608147.55946  23818388.472    23818388.4334   23818395.8944
        -0.000          -0.000
  -2968221.947 9  -2298673.48248  21544754.651    21544754.9764   21544760.0504
        -0.000          -0.000
   2608851.838 8   2020681.11245  24011720.727    24011720.5814   24011726.7844
        -0.000          -0.000
    491774.932 9    381172.62349  20777432.608    20777432.0734   20777437.1244
        -0.000          -0.000
  -3017975.283 9  -2339950.39647  22625776.024    22625775.9214   22625780.9544
        -0.000          -0.000
 97  3  7 22 23 29.9990000  0  7 26  2 24  4 27  7  9               -0.000067379
   1096618.241 9    850111.75146  23820338.942    23820339.2124   23820345.6684
        -0.000          -0.000
    280439.221 9    217574.41348  21753092.691    21753092.2184   21753097.7244
        -0.000          -0.000
  -3530579.752 9  -2708816.77946  23793803.933    23793803.8834   23793811.3664
        -0.000          -0.000
  -3065294.012 9  -2374314.01548  21526282.456    21526282.7944   21526287.8624
        -0.000          -0.000
   2703721.618 8   2094605.51845  24029773.868    24029773.5854   24029780.0584
        -0.000          -0.000
    514337.116 9    398753.54449  20781726.045    20781725.5114   20781730.5834
        -0.000          -0.000
  -3118147.564 9  -2418006.68147  22606714.010    22606713.8184   22606718.8404
        -0.000          -0.000
 97  3  7 22 23 59.9990000  0  7 26  2 24  4 27  7  9               -0.000080830
   1138865.843 9    883031.91346  23828378.417    23828378.6874   23828385.2854
        -0.000          -0.000
    295114.178 9    229009.43248  21755885.177    21755884.7844   21755890.2574
        -0.000          -0.000
  -3659576.398 9  -2809333.58546  23769256.598    23769256.5374   23769263.8964
        -0.000          -0.000
  -3161823.012 9  -2449531.39048  21507913.626    21507913.9214   21507918.9614
        -0.000          -0.000
   2798820.601 8   2168708.48745  24047870.262    24047870.1054   24047876.7904
        -0.000          -0.000
    537260.312 9    416615.77649  20786088.193    20786087.6614   20786092.7414
        -0.000          -0.000
  -3217864.012 9  -2495707.77247  22587738.555    22587738.4244   22587743.3944
        -0.000          -0.000
 97  3  7 22 24 29.9990000  0  7 26  2 24  4 27  7  9               -0.000094191
   1181444.604 9    916210.11346  23836480.937    23836481.2574   23836487.7724
        -0.000          -0.000
    310170.354 9    240741.50648  21758750.319    21758749.9414   21758755.4334
        -0.000          -0.000
  -3788358.251 9  -2909683.01646  23744750.053    23744750.0914   23744757.3354
        -0.000          -0.000
  -3257801.439 9  -2524319.73848  21489649.461    21489649.7854   21489654.7714
        -0.000          -0.000
   2894170.371 9   2243006.98845  24066015.134    24066014.9444   24066021.1994
        -0.000          -0.000
    560552.122 9    434765.24149  20790520.455    20790519.9334   20790525.0074
        -0.000          -0.000
  -3317112.288 9  -2573044.06747  22568852.132    22568852.0894   22568856.9474
        -0.000          -0.000
 97  3  7 22 24 59.9990000  0  7 26  2 24  4 27  7  9               -0.000107459
   1224370.215 9    949658.61146  23844649.445    23844649.7724   23844656.1274
        -0.000          -0.000
    325619.925 9    252780.12148  21761690.445    21761690.0064   21761695.5684
        -0.000          -0.000
  -3916913.924 9  -3009856.20246  23720286.797    23720286.7474   23720294.1034
        -0.000          -0.000
  -3353216.417 9  -2598669.04248  21471492.653    21471492.9654   21471497.9054
        -0.000          -0.000
   2989779.173 9   2317507.33745  24084209.238    24084208.8194   24084215.4404
        -0.000          -0.000
    584206.372 9    453197.11849  20795021.747    20795021.2164   20795026.2744
        -0.000          -0.000
  -3415890.076 9  -2650013.73447  22550055.224    22550055.2024   22550060.1094
        -0.000          -0.000
 97  3  7 22 25 29.9990000  0  7 26  2 24  4 27  7  9               -0.000120634
   1267624.495 9    983363.21846  23852880.593    23852880.8944   23852887.1984
        -0.000          -0.000
    341446.347 9    265112.38148  21764702.088    21764701.6614   21764707.2754
        -0.000          -0.000
  -4045256.324 9  -3109863.22646  23695864.065    23695864.0744   23695871.3504
        -0.000          -0.000
  -3448089.651 9  -2672596.20448  21453438.840    21453439.1434   21453444.0944
        -0.000          -0.000
   3085640.050 9   2392204.08045  24102451.321    24102450.8404   24102457.3944
        -0.000          -0.000
    608222.777 9    471911.20049  20799591.905    20799591.3634   20799596.4214
        -0.000          -0.000
  -3514208.777 9  -2726625.67847  22531345.861    22531345.7844   22531350.6234
        -0.000          -0.000
 97  3  7 22 25 59.9990000  0  7 26  2 24  4 27  7  9               -0.000133698
   1311213.429 9   1017328.58046  23861175.273    23861175.5524   23861181.9664
        -0.000          -0.000
    357658.906 9    277745.53948  21767787.243    21767786.7954   21767792.3634
        -0.000          -0.000
  -4173367.832 9  -3209690.31746  23671485.176    23671485.2424   23671492.5784
        -0.000          -0.000
  -3542418.275 9  -2746098.99848  21435488.721    21435489.0304   21435493.9034
        -0.000          -0.000
   3181768.475 8   2467109.27345  24120744.186    24120743.6764   24120749.9744
        -0.000          -0.000
    632612.633 9    490916.28749  20804233.127    20804232.6194   20804237.6624
        -0.000          -0.000
  -3612050.631 9  -2802866.05647  22512727.246    22512727.1534   22512731.9094
        -0.000          -0.000
 97  3  7 22 26 29.9990000  0  7 26  2 24  4 27  7  9               -0.000146661
   1355144.686 9   1051560.68446  23869535.139    23869535.4844   23869541.8164
        -0.000          -0.000
    374260.775 9    290682.04048  21770946.571    21770946.0974   21770951.4804
        -0.000          -0.000
  -4301263.416 9  -3309349.15746  23647147.427    23647147.4304   23647154.8424
        -0.000          -0.000
  -3636186.942 9  -2819165.45648  21417645.152    21417645.4334   21417650.2944
        -0.000          -0.000
   3278154.325 9   2542215.03146  24139085.722    24139085.4384   24139091.7324
        -0.000          -0.000
    657371.349 9    510208.79249  20808944.636    20808944.0684   20808949.1464
        -0.000          -0.000
  -3709409.661 9  -2878730.20647  22494200.522    22494200.4194   22494205.1884
        -0.000          -0.000
 97  3  7 22 26 59.9990000  0  7 26  2 24  4 27  7  9               -0.000159554
   1399400.864 9   1086045.98146  23877956.930    23877957.1744   23877963.5744
        -0.000          -0.000
    391217.101 9    303894.74648  21774173.307    21774172.8244   21774178.0854
        -0.000          -0.000
  -4428975.883 9  -3408865.30846  23622844.376    23622844.3654   23622851.9594
        -0.000          -0.000
  -3729399.013 9  -2891798.21148  21399907.509    21399907.7624   21399912.5944
        -0.000          -0.000
   3374767.542 9   2617497.94246  24157470.491    24157470.2524   24157476.7324
        -0.000          -0.000
    682480.637 9    529774.47848  20813722.710    20813722.1804   20813727.3024
        -0.000          -0.000
  -3806301.660 9  -2954230.43147  22475762.567    22475762.4544   22475767.1814
        -0.000          -0.000
 97  3  7 22 27 29.9990000  0  7 26  2 24  4 27  7  9               -0.000172380
   1443959.154 9   1120766.69646  23886436.194    23886436.4544   23886442.6214
        -0.000          -0.000
    408506.509 9    317366.99148  21777463.331    21777462.9364   21777468.1434
        -0.000          -0.000
  -4556505.268 9  -3508238.80346  23598576.392    23598576.2964   23598583.8844
        -0.000          -0.000
  -3822061.169 9  -2964002.45848  21382274.437    21382274.7094   21382279.5814
        -0.000          -0.000
   3471598.137 9   2692950.25446  24175896.822    24175896.5954   24175903.1634
        -0.000          -0.000
    707929.642 9    549604.87548  20818565.445    20818564.9474   20818570.1004
        -0.000          -0.000
  -3902725.433 9  -3029365.80147  22457413.662    22457413.4864   22457418.3004
        -0.000          -0.000
 97  3  7 22 27 59.9990000  0  7 26  2 24  4 27  7  9               -0.000185137
   1488831.269 9   1155731.91846  23894975.151    23894975.3334   23894981.6124
        -0.000          -0.000
    426143.153 9    331109.81448  21780819.603    21780819.2034   21780824.3804
        -0.000          -0.000
  -4683830.086 9  -3607452.86246  23574347.279    23574347.1694   23574354.7724
        -0.000          -0.000
  -3914144.757 9  -3035755.86848  21364751.463    21364751.7304   21364756.6874
        -0.000          -0.000
   3568654.951 9   2768578.87446  24194366.322    24194366.1094   24194372.6794
        -0.000          -0.000
    733726.826 9    569706.57448  20823474.568    20823474.0394   20823479.1854
        -0.000          -0.000
  -3998661.962 9  -3104121.51347  22439157.461    22439157.3154   22439162.1984
        -0.000          -0.000
 97  3  7 22 28 29.9990000  0  7 26  2 24  4 27  7  9               -0.000197836
   1534014.181 9   1190939.36446  23903573.219    23903573.4504   23903579.6894
        -0.000          -0.000
    444118.072 9    345116.23848  21784240.109    21784239.7254   21784245.0584
        -0.000          -0.000
  -4810943.656 9  -3706502.34246  23550158.239    23550158.3154   23550165.8444
        -0.000          -0.000
  -4005646.163 9  -3107055.63748  21347339.281    21347339.5354   21347344.5214
        -0.000          -0.000
   3665934.763 9   2844381.27446  24212878.196    24212877.8734   24212884.5094
        -0.000          -0.000
    759888.397 9    590092.21448  20828452.926    20828452.4024   20828457.6124
        -0.000          -0.000
  -4094121.718 9  -3178505.70947  22420992.088    22420991.9004   22420996.8174
        -0.000          -0.000
 97  3  7 22 28 59.9990000  0  7 26  2 24  4 27  7  9               -0.000210464
   1579507.701 9   1226388.82546  23912230.376    23912230.6274   23912236.8284
        -0.000          -0.000
    462436.803 9    359390.56948  21787725.905    21787725.5824   21787731.1224
        -0.000          -0.000
  -4937818.262 9  -3805365.61546  23526014.784    23526014.8194   23526022.3544
        -0.000          -0.000
  -4096592.928 9  -3177923.21448  21330032.595    21330032.8464   21330037.8754
        -0.000          -0.000
   3763432.441 8   2920353.42545  24231431.312    24231431.2084   24231437.7084
        -0.000          -0.000
    786419.860 9    610766.07448  20833501.763    20833501.2574   20833506.3924
        -0.000          -0.000
  -4189109.947 9  -3252522.49047  22402916.385    22402916.2144   22402921.2534
        -0.000          -0.000
 97  3  7 22 29 29.9990000  0  7 26  2 24  4 27  7  9               -0.000223008
   1625319.307 9   1262086.14546  23920947.994    23920948.3624   23920954.4954
        -0.000          -0.000
    481138.636 9    373963.42248  21791284.724    21791284.4084   21791289.9354
        -0.000          -0.000
  -5064425.613 9  -3904020.65046  23501922.181    23501922.2084   23501929.5874
        -0.000          -0.000
  -4186968.672 9  -3248345.83748  21312834.580    21312834.8614   21312839.9764
        -0.000          -0.000
   3861157.100 7   2996502.44245  24250027.407    24250027.6664   24250034.6024
        -0.000          -0.000
    813323.015 9    631729.56648  20838621.391    20838620.8534   20838625.9054
        -0.000          -0.000
  -4283620.651 9  -3326167.16247  22384931.524    22384931.3444   22384936.4744
        -0.000          -0.000
 97  3  7 22 29 59.9990000  0  7 26  2 24  4 27  7  9               -0.000235466
   1671456.858 9   1298037.43846  23929727.706    23929728.0844   23929734.2504
        -0.000          -0.000
    500241.189 9    388848.51548  21794919.948    21794919.5714   21794924.9484
        -0.000          -0.000
  -5190773.667 9  -4002473.63546  23477879.036    23477879.0624   23477886.1494
        -0.000          -0.000
  -4276771.663 9  -3318322.16248  21295745.510    21295745.8324   21295750.9734
        -0.000          -0.000
   3959105.96617   3072826.04454  24268665.935    24268665.8615   24268674.3255
        -0.000          -0.000
    840592.502 9    652978.51848  20843810.654    20843810.1414   20843815.1484
        -0.000          -0.000
  -4377661.418 9  -3399445.66747  22367036.072    22367035.9734   22367041.0694
        -0.000          -0.000
 97  3  7 22 30 29.9990000  0  7 26  2 24  4 27  7  9               -0.000247819
   1717930.827 9   1334250.88046  23938571.503    23938571.8014   23938578.0604
        -0.000          -0.000
    519764.335 9    404061.34148  21798635.334    21798634.8394   21798640.0794
        -0.000          -0.000
  -5316857.928 9  -4100721.08246  23453886.079    23453886.0624   23453892.9424
        -0.000          -0.000
  -4366003.827 9  -3387853.69348  21278765.134    21278765.4874   21278770.5974
        -0.000          -0.000
   4057284.939 8   3149329.06155  24287349.106    24287351.2564   24287353.3035
        -0.000          -0.000
    868212.365 9    674500.48848  20849066.565    20849066.0324   20849071.0514
        -0.000          -0.000
  -4471228.226 9  -3472354.84247  22349230.956    22349230.8594   22349235.8964
        -0.000          -0.000
 97  3  7 22 30 59.9990000  0  7 26  2 24  4 27  7  9               -0.000260060
   1764736.225 9   1370722.58746  23947478.419    23947478.5964   23947484.8744
        -0.000          -0.000
    539716.834 9    419608.73048  21802432.271    21802431.7504   21802436.9844
        -0.000          -0.000
  -5442682.391 9  -4198766.07846  23429942.559    23429942.5184   23429949.2444
        -0.000          -0.000
  -4454665.999 9  -3456941.07548  21261893.344    21261893.6574   21261898.6834
        -0.000          -0.000
   4155692.052 8   3226009.92145  24306075.887    24306077.4344   24306082.1204
        -0.000          -0.000
    896156.503 9    696275.14548  20854384.151    20854383.5914   20854388.6984
        -0.000          -0.000
  -4564309.310 9  -3544885.52447  22331518.256    22331518.1024   22331523.1254
        -0.000          -0.000
 97  3  7 22 31 29.9990000  0  7 26  2 24  4 27  7  9               -0.000272193
   1811865.154 9   1407446.39246  23956446.778    23956446.9674   23956453.2584
        -0.000          -0.000
    560093.688 9    435486.79148  21806309.797    21806309.2864   21806314.6384
        -0.000          -0.000
  -5568261.639 9  -4296619.96846  23406045.673    23406045.5624   23406052.3924
        -0.000          -0.000
  -4542736.253 9  -3525567.21948  21245134.185    21245134.5094   21245139.5084
        -0.000          -0.000
   4254340.854 9   3302879.06345  24324848.511    24324849.2574   24324854.9554
        -0.000          -0.000
    924422.632 9    718300.70348  20859762.941    20859762.4274   20859767.5984
        -0.000          -0.000
  -4656897.122 9  -3617031.83947  22313899.416    22313899.2294   22313904.2494
        -0.000          -0.000
 97  3  7 22 31 59.9990000  0  7 26  2 24  4 27  7  9               -0.000284217
   1859300.654 9   1444409.07345  23965473.420    23965473.6484   23965479.9204
        -0.000          -0.000
    580868.870 9    451675.22948  21810263.087    21810262.5894   21810268.0484
        -0.000          -0.000
  -5693613.101 9  -4394296.36546  23382191.958    23382191.9164   23382198.7844
        -0.000          -0.000
  -4630234.753 9  -3593747.84348  21228483.828    21228484.1664   21228489.1024
        -0.000          -0.000
   4353218.800 9   3379926.77145  24343664.460    24343664.7624   24343671.0124
        -0.000          -0.000
    953002.301 9    740570.57348  20865201.515    20865200.9624   20865206.1524
        -0.000          -0.000
  -4748990.910 9  -3688793.21547  22296374.560    22296374.4014   22296379.2504
        -0.000          -0.000
 97  3  7 22 32 29.9990000  0  7 26  2 24  4 27  7  9               -0.000296136
   1907029.255 9   1481600.16145  23974555.957    23974556.2204   23974562.2654
        -0.000          -0.000
    602038.926 9    468171.37548  21814291.618    21814291.1104   21814296.6404
        -0.000          -0.000
  -5818723.495 9  -4491784.92646  23358384.170    23358384.1674   23358390.9914
        -0.000          -0.000
  -4717148.073 9  -3661472.48548  21211944.834    21211945.1464   21211949.9914
        -0.000          -0.000
   4452324.229 9   3457151.71845  24362523.627    24362523.8854   24362530.2204
        -0.000          -0.000
    981913.600 9    763098.85848  20870703.119    20870702.6134   20870707.7814
        -0.000          -0.000
  -4840571.305 9  -3760154.53347  22278947.378    22278947.2664   22278952.0684
        -0.000          -0.000
 97  3  7 22 32 59.9990000  0  6 26  2 24  4  7  9                  -0.000307918
   1955037.284 9   1519008.98145  23983691.695    23983691.9954   23983697.9744
        -0.000          -0.000
    623589.619 9    484964.11748  21818392.659    21818392.1414   21818397.6584
        -0.000          -0.000
  -5943587.476 9  -4589081.48746  23334623.273    23334623.2874   23334630.0554
        -0.000          -0.000
  -4803455.839 9  -3728725.26648  21195520.991    21195521.3264   21195526.1324
        -0.000          -0.000
   1011188.270 9    785910.28348  20876273.976    20876273.4564   20876278.5294
        -0.000          -0.000
  -4931633.578 9  -3831112.12447  22261618.788    22261618.6624   22261623.4714
        -0.000          -0.000
 97  3  7 22 33 29.9990000  0  6 26  2 24  4  7  9                  -0.000319636
   2003335.073 9   1556643.55645  23992882.314    23992882.5234   23992888.7244
        -0.000          -0.000
    645534.898 9    502064.33048  21822568.740    21822568.2404   21822573.7294
        -0.000          -0.000
  -6068178.444 9  -4686165.29146  23310914.294    23310914.2504   23310921.0984
        -0.000          -0.000
  -4889122.100 9  -3795478.17248  21179219.344    21179219.6514   21179224.4404
        -0.000          -0.000
   1040862.868 9    809033.33648  20881921.000    20881920.4574   20881925.4024
        -0.000          -0.000
  -5022153.735 9  -3901647.28347  22244393.249    22244393.1574   22244398.0534
        -0.000          -0.000
 97  3  7 22 33 59.9990000  0  6 26  2 24  4  7  9                  -0.000331318
   2051895.778 9   1594483.00245  24002122.956    24002123.2564   24002129.6774
        -0.000          -0.000
    667859.692 9    519460.26148  21826816.891    21826816.4904   21826821.9644
        -0.000          -0.000
  -6192491.304 9  -4783032.36146  23287258.266    23287258.1974   23287265.1624
        -0.000          -0.000
  -4974156.995 9  -3861739.10648  21163037.741    21163038.0644   21163042.8244
        -0.000          -0.000
   1070927.545 9    832460.35348  20887642.080    20887641.5474   20887646.4694
        -0.000          -0.000
  -5112145.467 9  -3971770.68947  22227268.329    22227268.2924   22227273.1534
        -0.000          -0.000
 97  3  7 22 34 29.9990000  0  6 26  2 24  4  7  9                  -0.000342967
   2100726.458 9   1632532.85045  24011415.220    24011415.2234   24011421.7254
        -0.000          -0.000
    690573.919 9    537159.64048  21831139.189    21831138.8474   21831144.2694
        -0.000          -0.000
  -6316503.403 9  -4879665.06746  23263659.435    23263659.4144   23263666.4084
        -0.000          -0.000
  -5058540.541 9  -3927492.49648  21146980.086    21146980.3904   21146985.1274
        -0.000          -0.000
   1101404.897 9    856208.93848  20893441.622    20893441.1424   20893446.0914
        -0.000          -0.000
  -5201599.384 9  -4041475.02147  22210245.849    22210245.7574   22210250.5884
        -0.000          -0.000
 97  3  7 22 34 59.9990000  0  6 26  2 24  4  7  9                  -0.000354561
   2149838.518 9   1670801.96445  24020760.843    24020761.0634   24020767.3924
        -0.000          -0.000
    713686.807 9    555169.67248  21835537.438    21835537.0824   21835542.5164
        -0.000          -0.000
  -6440201.315 9  -4976052.98546  23240120.504    23240120.4904   23240127.3974
        -0.000          -0.000
  -5142272.962 9  -3992738.51148  21131046.320    21131046.6114   21131051.3584
        -0.000          -0.000
   1132292.035 9    880276.83348  20899319.243    20899318.7434   20899323.7724
        -0.000          -0.000
  -5290513.366 9  -4110758.62647  22193325.975    22193325.9304   22193330.7464
        -0.000          -0.000
 97  3  7 22 35 29.9990000  0  6 26  2 24  4  7  9                  -0.000366059
   2199239.936 9   1709296.53645  24030161.602    24030161.8854   24030168.2404
        -0.000          -0.000
    737213.507 9    573502.15948  21840014.462    21840014.0634   21840019.5284
        -0.000          -0.000
  -6563575.205 9  -5072188.42346  23216643.218    23216643.2634   23216650.0344
        -0.000          -0.000
  -5225363.464 9  -4057484.32848  21115234.698    21115234.9874   21115239.7324
        -0.000          -0.000
   1163557.644 9    904639.64848  20905268.859    20905268.3544   20905273.4114
        -0.000          -0.000
  -5378884.799 9  -4179619.46547  22176509.340    22176509.3324   22176514.1634
        -0.000          -0.000
 97  3  7 22 35 59.9990000  0  6 26  2 24  4  7  9                  -0.000377432
   2248938.850 9   1748022.91246  24039619.145    24039619.4074   24039625.8514
        -0.000          -0.000
    761163.905 9    592164.79448  21844572.168    21844571.7374   21844577.1534
        -0.000          -0.000
  -6686635.892 9  -5168079.81046  23193225.514    23193225.4944   23193232.1744
        -0.000          -0.000
  -5307828.137 9  -4121742.48948  21099542.146    21099542.4714   21099547.2034
        -0.000          -0.000
   1195190.403 9    929288.55848  20911288.388    20911287.8974   20911292.9844
        -0.000          -0.000
  -5466720.393 9  -4248062.75247  22159794.866    22159794.8034   22159799.6704
        -0.000          -0.000
 97  3  7 22 36 29.9990000  0  6 26  2 24  4  7  9                  -0.000388662
   2298941.827 9   1786986.22246  24049134.408    24049134.7304   24049141.3274
        -0.000          -0.000
    785542.530 9    611161.11048  21849211.451    21849210.9664   21849216.2724
        -0.000          -0.000
  -6809407.197 9  -5263745.70146  23169862.764    23169862.8184   23169869.5064
        -0.000          -0.000
  -5389683.881 9  -4185526.16048  21083965.516    21083965.8044   21083970.5184
        -0.000          -0.000
   1227168.237 9    954206.34648  20917373.585    20917373.1044   20917378.2174
        -0.000          -0.000
  -5554027.993 9  -4316094.63947  22143180.779    22143180.7254   22143185.5744
        -0.000          -0.000
 97  3  7 22 36 59.9990000  0  6 26  2 24  4  7  9                  -0.000399729
   2349249.203 9   1826186.72846  24058707.723    24058707.9334   24058714.5144
        -0.000          -0.000
    810345.639 9    630488.20148  21853931.322    21853930.8484   21853936.1514
        -0.000          -0.000
  -6931896.906 9  -5359192.16446  23146553.646    23146553.7254   23146560.3484
        -0.000          -0.000
  -5470946.559 9  -4248847.70048  21068501.691    21068502.0104   21068506.7164
        -0.000          -0.000
   1259459.610 9    979368.45648  20923518.533    20923518.0004   20923523.0984
        -0.000          -0.000
  -5640806.548 9  -4383714.27247  22126667.368    22126667.3474   22126672.1804
        -0.000          -0.000
 97  3  7 22 37 29.9990000  0  6 26  2 24  4  7  9                  -0.000410657
   2399846.677 9   1865613.30246  24068336.187    24068336.4374   24068343.0194
        -0.000          -0.000
    835552.394 9    650129.81948  21858727.994    21858727.4684   21858732.8884
        -0.000          -0.000
  -7054130.596 9  -5454439.12446  23123293.394    23123293.3774   23123299.9834
        -0.000          -0.000
  -5551626.573 9  -4311715.21448  21053148.844    21053149.1284   21053153.8314
        -0.000          -0.000
   1292045.306 9   1004759.90448  20929719.318    20929718.8174   20929723.9394
        -0.000          -0.000
  -5727067.099 9  -4450930.25547  22110252.595    22110252.5114   22110257.3244
        -0.000          -0.000
 97  3  7 22 37 59.9990000  0  6 26  2 24  4  7  9                  -0.000421461
   2450717.475 9   1905252.87146  24078016.785    24078017.0254   24078023.4764
        -0.000          -0.000
    861154.189 9    670079.25248  21863599.772    21863599.3154   21863604.8624
        -0.000          -0.000
  -7176118.489 9  -5549494.54446  23100079.871    23100079.9074   23100086.4524
        -0.000          -0.000
  -5631726.759 9  -4374130.91948  21037906.227    21037906.5404   21037911.2604
        -0.000          -0.000
   1324934.992 9   1030388.23148  20935978.057    20935977.5544   20935982.6604
        -0.000          -0.000
  -5812798.101 9  -4517733.61647  22093938.513    22093938.4554   22093943.1874
        -0.000          -0.000
 97  3  7 22 38 29.9990000  0  6 26  2 24  4  7  9                  -0.000432183
   2501825.570 9   1945077.32646  24087742.400    24087742.6634   24087749.1464
        -0.000          -0.000
    887115.846 9    690309.10448  21868540.138    21868539.7054   21868545.2964
        -0.000          -0.000
  -7297862.575 9  -5644359.99946  23076912.691    23076912.7464   23076919.2084
        -0.000          -0.000
  -5711252.685 9  -4436099.14848  21022772.905    21022773.1974   21022777.9354
        -0.000          -0.000
   1358106.097 9   1056235.84448  20942290.393    20942289.8544   20942294.9274
        -0.000          -0.000
  -5898008.727 9  -4584131.49047  22077723.407    22077723.3804   22077728.1704
        -0.000          -0.000
 97  3  7 22 38 59.9990000  0  6 26  2 24  4  7  9                  -0.000442852
   2553152.081 9   1985071.96546  24097509.438    24097509.7614   24097516.1684
        -0.000          -0.000
    913418.245 9    710804.45648  21873545.466    21873544.9404   21873550.4744
        -0.000          -0.000
  -7419356.128 9  -5739030.26046  23053793.219    23053793.3214   23053799.6414
        -0.000          -0.000
  -5790200.529 9  -4497616.92448  21007749.546    21007749.8774   21007754.6374
        -0.000          -0.000
   1391562.144 9   1082305.48548  20948656.902    20948656.3774   20948661.4024
        -0.000          -0.000
  -5982690.845 9  -4650117.52847  22061608.897    22061608.8964   22061613.7774
        -0.000          -0.000
 97  3  7 22 39 29.9990000  0  6 26  2 24  4  7  9                  -0.000453479
   2604698.476 9   2025237.90746  24107318.426    24107318.7014   24107325.2164
        -0.000          -0.000
    940076.244 9    731576.90748  21878618.423    21878617.8984   21878623.3164
        -0.000          -0.000
  -7540585.673 9  -5833494.78646  23030724.091    23030724.1414   23030730.4454
        -0.000          -0.000
  -5868541.128 9  -4558661.52548  20992841.745    20992842.1084   20992846.9184
        -0.000          -0.000
   1425327.202 9   1108615.92448  20955082.186    20955081.6694   20955086.6734
        -0.000          -0.000
  -6066844.294 9  -4715691.61547  22045595.014    22045594.9424   22045599.9534
        -0.000          -0.000
 97  3  7 22 39 59.9990000  0  6 26  2 24  4  7  9                  -0.000464071
   2656465.435 9   2065575.74646  24117169.516    24117169.6414   24117176.2494
        -0.000          -0.000
    967086.137 9    752623.56148  21883758.292    21883757.8004   21883763.1574
        -0.000          -0.000
  -7661535.928 9  -5927741.68146  23007708.047    23007708.0754   23007714.3784
        -0.000          -0.000
  -5946266.094 9  -4619226.40848  20978051.161    20978051.4974   20978056.3444
        -0.000          -0.000
   1459403.343 9   1135168.75448  20961566.631    20961566.1104   20961571.1574
        -0.000          -0.000
  -6150467.974 9  -4780852.91647  22029681.974    22029681.8794   22029686.8504
        -0.000          -0.000
 97  3  7 22 40 29.9990000  0  6 26  2 24  4  7  9                  -0.000474627
   2708482.067 9   2106108.15546  24127067.993    24127068.2284   24127074.6714
        -0.000          -0.000
    994459.338 9    773953.31248  21888967.292    21888966.7634   21888972.1334
        -0.000          -0.000
  -7782188.826 9  -6021756.86746  22984748.631    22984748.5194   22984754.9184
        -0.000          -0.000
  -6023341.720 9  -4679285.31748  20963384.087    20963384.4714   20963389.2904
        -0.000          -0.000
   1493807.303 9   1161977.03848  20968113.457    20968112.9384   20968118.0314
        -0.000          -0.000
  -6233551.622 9  -4845593.40147  22013871.599    22013871.6044   22013876.5274
        -0.000          -0.000
 97  3  7 22 40 59.9990000  0  6 26  2 24  4  7  9                  -0.000485148
   2760746.150 9   2146833.39446  24137013.657    24137013.8834   24137020.1684
        -0.000          -0.000
   1022195.924 9    795566.21348  21894245.348    21894244.8104   21894250.2534
        -0.000          -0.000
  -7902567.351 9  -6115558.24746  22961841.292    22961841.2284   22961847.6704
        -0.000          -0.000
  -6099769.323 9  -4738839.27648  20948840.506    20948840.8394   20948845.6064
        -0.000          -0.000
   1528526.386 9   1189030.87048  20974720.235    20974719.7044   20974724.8774
        -0.000          -0.000
  -6316108.834 9  -4909923.68147  21998161.537    21998161.5004   21998166.4574
        -0.000          -0.000
 97  3  7 22 41 29.9990000  0  6 26  2 24  4  7  9                  -0.000495638
   2813236.488 9   2187734.91746  24147002.335    24147002.5684   24147008.8244
        -0.000          -0.000
   1050288.793 9    817456.74047  21899591.163    21899590.6094   21899596.1534
        -0.000          -0.000
  -8022688.315 9  -6209158.96146  22938982.946    22938982.8424   22938989.3854
        -0.000          -0.000
  -6175558.101 9  -4797895.44848  20934418.412    20934418.7234   20934423.4144
        -0.000          -0.000
   1563527.908 9   1216304.77948  20981380.795    20981380.2934   20981385.4204
        -0.000          -0.000
  -6398168.142 9  -4973865.97547  21982546.114    21982546.1104   21982551.0994
        -0.000          -0.000
 97  3  7 22 41 59.9990000  0  6 26  2 24  4  7  9                  -0.000506087
   2865944.368 9   2228805.92446  24157032.295    24157032.5244   24157038.8884
        -0.000          -0.000
   1078739.362 9    839625.99047  21905005.213    21905004.6014   21905010.1884
        -0.000          -0.000
  -8142550.392 9  -6302557.94546  22916173.951    22916173.9034   22916180.3634
        -0.000          -0.000
  -6250714.863 9  -4856459.13648  20920116.620    20920116.8954   20920121.5674
        -0.000          -0.000
   1598807.283 9   1243795.20248  20988094.252    20988093.7154   20988098.8364
        -0.000          -0.000
  -6479719.771 9  -5037412.66748  21967027.436    21967027.3934   21967032.3864
        -0.000          -0.000
 97  3  7 22 42 29.9990000  0  6 26  2 24  4  7  9                  -0.000516481
   2918854.984 9   2270034.92346  24167100.906    24167101.1244   24167107.5864
        -0.000          -0.000
   1107557.673 9    862081.80448  21910489.204    21910488.6144   21910494.1384
        -0.000          -0.000
  -8262151.735 9  -6395753.75046  22893414.600    22893414.4804   22893420.9424
        -0.000          -0.000
  -6325249.363 9  -4914537.94648  20905933.175    20905933.4434   20905938.0864
        -0.000          -0.000
   1634353.861 9   1271493.83348  20994858.484    20994858.0024   20994863.0944
        -0.000          -0.000
  -6560784.487 9  -5100579.96748  21951601.442    21951601.3734   21951606.2194
        -0.000          -0.000
 97  3  7 22 42 59.9990000  0  7 26  2 24  4  5  7  9               -0.000526853
   2971929.022 9   2311391.27246  24177200.585    24177200.8824   24177207.3924
        -0.000          -0.000
   1136736.183 9    884818.28747  21916041.724    21916041.2104   21916046.6304
        -0.000          -0.000
  -8381489.231 9  -6488743.98546  22870705.358    22870705.2704   22870711.7024
        -0.000          -0.000
  -6399206.189 9  -4972166.62248  20891859.733    20891859.9764   20891864.5984
        -0.000          -0.000
  -2773534.02119  -2147094.10755  24520638.558    24520638.1755   24520644.7515
        -0.000          -0.000
   1670139.864 9   1299379.01848  21001668.432    21001667.9084   21001672.8994
        -0.000          -0.000
  -6641389.107 9  -5163388.74048  21936262.906    21936262.8014   21936267.5534
        -0.000          -0.000
 97  3  7 22 43 29.9990000  0  7 26  2 24  4  5  7  9               -0.000537041
   3025139.885 9   2352854.26346  24187326.275    24187326.4534   24187333.0804
        -0.000          -0.000
   1166259.264 9    907823.26247  21921659.872    21921659.3314   21921664.6794
        -0.000          -0.000
  -8500559.357 9  -6581525.86346  22848046.991    22848046.8664   22848053.3144
        -0.000          -0.000
  -6472621.771 9  -5029373.54848  20877889.171    20877889.4584   20877894.0584
        -0.000          -0.000
  -2872067.726 9  -2223873.54645  24501888.193    24501887.6964   24501894.1274
        -0.000          -0.000
   1706151.821 9   1327440.28248  21008521.409    21008520.8644   21008525.8104
        -0.000          -0.000
  -6721551.672 9  -5225853.05447  21921008.313    21921008.2624   21921013.0584
        -0.000          -0.000
 97  3  7 22 43 59.9990000  0  7 26  2 24  4  5  7  9               -0.000547154
   3078489.877 9   2394425.65846  24197478.382    24197478.6444   24197485.2124
        -0.000          -0.000
   1196118.973 9    931090.54447  21927342.036    21927341.4974   21927346.7964
        -0.000          -0.000
  -8619349.705 9  -6674089.71946  22825441.777    22825441.7264   22825448.2674
        -0.000          -0.000
  -6545497.596 9  -5086159.88448  20864021.323    20864021.6184   20864026.2294
        -0.000          -0.000
  -2970578.117 9  -2300634.81645  24483142.115    24483141.5744   24483148.1124
        -0.000          -0.000
   1742411.637 9   1355694.68248  21015421.354    21015420.8274   21015425.8714
        -0.000          -0.000
  -6801264.620 9  -5287967.02048  21905839.365    21905839.3734   21905844.1554
        -0.000          -0.000
 97  3  7 22 44 29.9990000  0  7 26  2 24  4  5  7  9               -0.000557213
   3131984.947 9   2436110.07546  24207658.313    24207658.5464   24207665.1424
        -0.000          -0.000
   1226308.306 9    954614.68147  21933086.792    21933086.2804   21933091.6184
        -0.000          -0.000
  -8737856.330 9  -6766432.47046  22802890.682    22802890.6084   22802897.2844
        -0.000          -0.000
  -6617820.315 9  -5142515.22848  20850258.752    20850259.0364   20850263.6844
        -0.000          -0.000
  -3069083.985 9  -2377392.53045  24464396.988    24464396.5514   24464402.9674
        -0.000          -0.000
   1778923.567 9   1384145.52848  21022369.403    21022368.8674   21022373.8754
        -0.000          -0.000
  -6880518.778 9  -5349723.48048  21890757.844    21890757.8244   21890762.6314
        -0.000          -0.000
 97  3  7 22 44 59.9990000  0  7 26  2 24  4  5  7  9               -0.000567230
   3185631.523 9   2477912.54746  24217866.866    24217867.0894   24217873.8174
        -0.000          -0.000
   1256835.429 9    978402.03547  21938895.723    21938895.3394   21938900.7594
        -0.000          -0.000
  -8856069.963 9  -6858546.95746  22780395.362    22780395.3404   22780401.8564
        -0.000          -0.000
  -6689565.942 9  -5198420.88948  20836606.011    20836606.3084   20836610.9614
        -0.000          -0.000
  -3167572.937 8  -2454137.07145  24445655.231    24445654.6464   24445661.1874
        -0.000          -0.000
   1815705.448 9   1412806.73848  21029368.801    21029368.2514   21029373.2154
        -0.000          -0.000
  -6959269.458 9  -5411087.63648  21875772.162    21875772.0984   21875776.8514
        -0.000          -0.000
 97  3  7 22 45 29.9990000  0  7 26  2 24  4  5  7  9               -0.000577228
   3239423.456 9   2519828.26646  24228103.119    24228103.4034   24228110.1814
        -0.000          -0.000
   1287676.688 9   1002434.17247  21944764.459    21944764.1064   21944769.6294
        -0.000          -0.000
  -8974025.809 9  -6950460.56346  22757949.155    22757949.0594   22757955.6294
        -0.000          -0.000
  -6760731.173 9  -5253874.29348  20823063.700    20823063.9834   20823068.6244
        -0.000          -0.000
  -3266058.331 8  -2530878.86545  24426914.036    24426913.5194   24426920.0554
        -0.000          -0.000
   1852745.410 9   1441669.03948  21036417.209    21036416.6924   21036421.6714
        -0.000          -0.000
  -7037524.453 9  -5472065.53748  21860880.702    21860880.6874   21860885.4284
        -0.000          -0.000
 97  3  7 22 45 59.9990000  0  7 26  2 24  4  5  7  9               -0.000587218
   3293358.375 9   2561855.42046  24238366.661    24238366.9584   24238373.7954
        -0.000          -0.000
   1318820.558 9   1026702.10647  21950690.948    21950690.6134   21950696.2044
        -0.000          -0.000
  -9091738.688 9  -7042184.82646  22735548.989    22735548.9384   22735555.6544
        -0.000          -0.000
  -6831314.027 9  -5308873.89348  20809632.183    20809632.4814   20809637.1724
        -0.000          -0.000
  -3364537.047 8  -2607615.44545  24408174.125    24408173.5334   24408179.9574
        -0.000          -0.000
   1890027.166 9   1470719.75848  21043511.730    21043511.2104   21043516.2164
        -0.000          -0.000
  -7115275.032 9  -5532650.38248  21846085.229    21846085.2504   21846089.9604
        -0.000          -0.000
 97  3  7 22 46 29.9990000  0  7 26  2 24  4  5  7  9               -0.000597177
   3347437.035 8   2603994.58045  24248657.669    24248657.7944   24248664.6404
        -0.000          -0.000
   1350284.801 9   1051219.68347  21956678.483    21956678.1284   21956683.7284
        -0.000          -0.000
  -9209213.915 9  -7133723.91446  22713194.178    22713194.1134   22713200.8454
        -0.000          -0.000
  -6901322.967 9  -5363426.28748  20796309.903    20796310.1944   20796314.8994
        -0.000          -0.000
  -3462989.803 8  -2684331.79645  24389438.894    24389438.1454   24389444.7854
        -0.000          -0.000
   1927526.830 9   1499940.26848  21050647.724    21050647.2004   21050652.1694
        -0.000          -0.000
  -7192513.324 9  -5592836.05348  21831387.309    21831387.3354   21831392.0354
        -0.000          -0.000
 97  3  7 22 46 59.9990000  0  7 26  2 24  4  5  7  9               -0.000607094
   3401654.557 8   2646241.94245  24258974.791    24258974.9814   24258981.6314
        -0.000          -0.000
   1382068.228 9   1075985.97247  21962726.821    21962726.4604   21962731.9334
        -0.000          -0.000
  -9326453.966 9  -7225079.75346  22690884.126    22690884.0584   22690890.7544
        -0.000          -0.000
  -6970775.603 9  -5417545.20148  20783093.461    20783093.7744   20783098.4744
        -0.000          -0.000
  -3561411.845 8  -2761024.24845  24370709.551    24370708.9984   24370715.5704
        -0.000          -0.000
   1965233.418 9   1529322.01748  21057823.051    21057822.5434   21057827.4964
        -0.000          -0.000
  -7269247.341 9  -5652628.77648  21816785.313    21816785.3244   21816790.1144
        -0.000          -0.000
 97  3  7 22 47 29.9990000  0  7 26  2 24  4  5  7  9               -0.000616968
   3456023.653 8   2688607.46845  24269320.861    24269321.1304   24269327.3944
        -0.000          -0.000
   1414169.703 9   1101000.08947  21968835.693    21968835.2624   21968840.6654
        -0.000          -0.000
  -9443462.499 9  -7316255.19147  22668618.162    22668618.1234   22668624.7314
        -0.000          -0.000
  -7039665.589 9  -5471225.68548  20769984.070    20769984.3994   20769989.1054
        -0.000          -0.000
  -3659805.381 8  -2837694.44145  24351986.091    24351985.4904   24351992.0574
        -0.000          -0.000
   2003150.586 9   1558867.85648  21065038.500    21065037.9874   21065042.9194
        -0.000          -0.000
  -7345477.584 9  -5712028.95248  21802279.170    21802279.1664   21802284.0094
        -0.000          -0.000
 97  3  7 22 47 59.9990000  0  7 26  2 24  4  5  7  9               -0.000626786
   3510559.481 9   2731102.86445  24279698.761    24279698.9734   24279705.4854
        -0.000          -0.000
   1446615.544 9   1126282.54047  21975009.923    21975009.5074   21975014.9504
        -0.000          -0.000
  -9560207.110 9  -7407224.96047  22646402.389    22646402.2924   22646408.9944
        -0.000          -0.000
  -7107965.154 9  -5524446.10048  20756987.093    20756987.4174   20756992.0884
        -0.000          -0.000
  -3758147.251 8  -2914324.42245  24333272.427    24333271.7974   24333278.4384
        -0.000          -0.000
   2041299.944 9   1588594.62748  21072298.091    21072297.5724   21072302.5234
        -0.000          -0.000
  -7421178.692 9  -5771016.82048  21787873.690    21787873.7094   21787878.5624
        -0.000          -0.000
 97  3  7 22 48 29.9990000  0  7 26  2 24  4  5  7  9               -0.000636554
   3565236.817 9   2773708.52445  24290103.555    24290103.9304   24290110.4774
        -0.000          -0.000
   1479396.201 9   1151825.88947  21981247.838    21981247.3894   21981252.8834
        -0.000          -0.000
  -9676693.952 9  -7497993.88547  22624235.618    22624235.5674   22624242.2264
        -0.000          -0.000
  -7175677.965 9  -5577209.30548  20744101.828    20744102.1574   20744106.7704
        -0.000          -0.000
  -3856455.430 8  -2990928.10645  24314564.692    24314564.1684   24314570.8574
        -0.000          -0.000
   2079683.327 9   1618503.75348  21079602.196    21079601.6754   21079606.6434
        -0.000          -0.000
  -7496380.412 9  -5829615.55048  21773563.295    21773563.2964   21773568.0954
        -0.000          -0.000
 97  3  7 22 48 59.9990000  0  7 26  2 24  4  5  7  9               -0.000646283
   3620039.594 8   2816411.91745  24300532.307    24300532.5724   24300539.2104
        -0.000          -0.000
   1512501.765 9   1177622.41747  21987547.537    21987547.0984   21987552.7064
        -0.000          -0.000
  -9792925.372 9  -7588563.76347  22602117.471    22602117.3904   22602124.0094
        -0.000          -0.000
  -7242799.327 9  -5629511.64148  20731329.041    20731329.3694   20731333.9554
        -0.000          -0.000
  -3954743.192 8  -3067515.88845  24295861.262    24295860.5964   24295867.2594
        -0.000          -0.000
   2118300.797 9   1648595.28348  21086950.877    21086950.3484   21086955.3214
        -0.000          -0.000
  -7571090.505 9  -5887831.19348  21759346.419    21759346.4384   21759351.2264
        -0.000          -0.000
 97  3  7 22 49 29.9990000  0  7 26  2 24  4  5  7  9               -0.000655973
   3674954.071 8   2859202.32845  24310982.005    24310982.3574   24310989.1284
        -0.000          -0.000
   1545933.449 9   1203673.06947  21993909.286    21993908.8644   21993914.5664
        -0.000          -0.000
  -9908895.445 9  -7678930.00347  22580048.997    22580048.9874   22580055.5474
        -0.000          -0.000
  -7309329.673 9  -5681353.44648  20718668.707    20718669.0444   20718673.6274
        -0.000          -0.000
  -4053014.133 8  -3144090.57745  24277160.621    24277160.1124   24277166.8834
        -0.000          -0.000
   2157139.660 9   1678859.33648  21094341.635    21094341.1024   21094346.0834
        -0.000          -0.000
  -7645315.323 9  -5945668.70448  21745221.904    21745221.9464   21745226.7574
        -0.000          -0.000
 97  3  7 22 49 59.9990000  0  7 26  2 24  4  5  7  9               -0.000665616
   3729963.346 8   2902066.63845  24321450.098    24321450.4404   24321457.0484
        -0.000          -0.000
   1579690.660 9   1229977.37347  22000333.091    22000332.6764   22000338.3994
        -0.000          -0.000
 -10024594.889 9  -7769085.36347  22558032.192    22558032.0704   22558038.6374
        -0.000          -0.000
  -7375292.384 9  -5732752.93748  20706116.466    20706116.7844   20706121.3824
        -0.000          -0.000
  -4151279.608 8  -3220661.01145  24258461.376    24258460.9564   24258467.6504
        -0.000          -0.000
   2196171.141 9   1709273.46848  21101769.060    21101768.5704   21101773.5024
        -0.000          -0.000
  -7719073.022 9  -6003142.22148  21731186.353    21731186.3234   21731191.1104
        -0.000          -0.000
 97  3  7 22 50 29.9990000  0  7 26  2 24  4  5  7  9               -0.000675227
   3785053.806 9   2944994.21345  24331933.425    24331933.7124   24331940.4474
        -0.000          -0.000
   1613757.529 9   1256522.97147  22006815.753    22006815.4394   22006821.1334
        -0.000          -0.000
 -10140030.247 9  -7859034.94547  22536065.561    22536065.4664   22536071.9964
        -0.000          -0.000
  -7440702.880 9  -5783722.13348  20693669.270    20693669.5814   20693674.1114
        -0.000          -0.000
  -4249555.747 8  -3297239.69245  24239759.886    24239759.6134   24239766.2664
        -0.000          -0.000
   2235370.814 9   1739818.66048  21109228.577    21109228.0554   21109232.9204
        -0.000          -0.000
  -7792370.865 9  -6060257.41048  21717238.193    21717238.1594   21717242.9404
        -0.000          -0.000
 97  3  7 22 50 59.9990000  0  7 26  2 24  4  5  7  9               -0.000684819
   3840215.516 9   2987977.35245  24342430.399    24342430.5764   24342437.2964
        -0.000          -0.000
   1648115.388 9   1283295.30947  22013353.955    22013353.6124   22013359.2704
        -0.000          -0.000
 -10255207.321 9  -7948783.26447  22514148.089    22514147.9214   22514154.5004
        -0.000          -0.000
  -7505572.728 9  -5834270.03948  20681324.945    20681325.2764   20681329.7664
        -0.000          -0.000
  -4347853.842 8  -3373835.55645  24221054.627    24221054.2034   24221060.7824
        -0.000          -0.000
   2274714.016 9   1770475.70048  21116715.332    21116714.8034   21116719.6104
        -0.000          -0.000
  -7865199.321 9  -6117006.84348  21703379.321    21703379.3034   21703384.1034
        -0.000          -0.000
 97  3  7 22 51 29.9990000  0  7 26  2 24  4  5  7  9               -0.000694396
   3895463.527 8   3031027.72045  24352943.747    24352944.0074   24352950.6744
        -0.000          -0.000
   1682776.272 9   1310303.76247  22019949.782    22019949.3874   22019955.0594
        -0.000          -0.000
 -10370112.050 9  -8038319.37247  22492282.286    22492282.2274   22492288.7634
        -0.000          -0.000
  -7569874.099 9  -5884374.98348  20669088.831    20669089.1374   20669093.5874
        -0.000          -0.000
  -4446161.194 8  -3450438.60345  24202347.297    24202346.9244   24202353.4044
        -0.000          -0.000
   2314225.166 9   1801263.60748  21124234.074    21124233.5474   21124238.3614
        -0.000          -0.000
  -7937539.820 9  -6173376.04848  21689613.420    21689613.4134   21689618.1594
        -0.000          -0.000
 97  3  7 22 51 59.9990000  0  7 26  2 24  4  5  7  9               -0.000703962
   3950794.606 9   3074142.81745  24363473.113    24363473.3484   24363480.0534
        -0.000          -0.000
   1717740.903 9   1337548.90747  22026603.411    22026602.9804   22026608.6144
        -0.000          -0.000
 -10484764.065 9  -8127658.56047  22470464.838    22470464.7114   22470471.1884
        -0.000          -0.000
  -7633596.751 9  -5934028.98048  20656962.830    20656963.1424   20656967.5844
        -0.000          -0.000
  -4544485.235 9  -3527054.64945  24183636.723    24183636.4074   24183642.8614
        -0.000          -0.000
   2353915.492 9   1832191.13548  21131786.883    21131786.3294   21131791.2004
        -0.000          -0.000
  -8009388.780 9  -6229362.23648  21675941.008    21675941.0284   21675945.7794
        -0.000          -0.000
 97  3  7 22 52 29.9990000  0  7 26  2 24  4  5  7  9               -0.000713541
   4006184.676 9   3117303.86445  24374013.602    24374013.8414   24374020.6904
        -0.000          -0.000
   1752985.164 9   1365011.95547  22033310.163    22033309.7784   22033315.3064
        -0.000          -0.000
 -10599173.588 9  -8216808.81047  22448693.427    22448693.2534   22448699.5554
        -0.000          -0.000
  -7696734.359 9  -5983227.08948  20644948.098    20644948.3904   20644952.8614
        -0.000          -0.000
  -4642832.998 9  -3603689.21745  24164921.877    24164921.5624   24164927.6824
        -0.000          -0.000
   2393790.786 9   1863262.79048  21139374.830    21139374.2964   21139379.2574
        -0.000          -0.000
  -8080748.940 9  -6284967.53848  21662361.638    21662361.6294   21662366.4504
        -0.000          -0.000
 97  3  7 22 52 59.9990000  0  7 26  2 24  4  5  7  9               -0.000723120
   4061654.439 9   3160527.02446  24384569.227    24384569.5144   24384576.3844
        -0.000          -0.000
   1788535.123 9   1392713.19447  22040074.956    22040074.6244   22040080.2204
        -0.000          -0.000
 -10713321.193 9  -8305754.95147  22426971.793    22426971.6514   22426977.9364
        -0.000          -0.000
  -7759259.324 9  -6031947.82248  20633049.942    20633050.2474   20633054.7154
        -0.000          -0.000
  -4741187.287 8  -3680328.84045  24146205.732    24146205.1804   24146211.5024
        -0.000          -0.000
   2433875.388 9   1894497.54348  21147002.737    21147002.1954   21147007.1294
        -0.000          -0.000
  -8151593.973 9  -6340171.44748  21648880.309    21648880.2424   21648885.1004
        -0.000          -0.000
 97  3  7 22 53 29.9990000  0  7 26  2 24  4  5  7  9               -0.000732697
   4117192.274 9   3203803.19746  24395137.721    24395138.0474   24395144.8734
        -0.000          -0.000
   1824385.184 9   1420648.28647  22046896.939    22046896.6314   22046902.2014
        -0.000          -0.000
 -10827220.826 9  -8394507.86247  22405297.366    22405297.2754   22405303.5704
        -0.000          -0.000
  -7821180.545 9  -6080198.10248  20621266.668    20621266.9844   20621271.5014
        -0.000          -0.000
  -4839552.857 9  -3756977.24845  24127486.989    24127486.5094   24127493.1724
        -0.000          -0.000
   2474157.779 9   1925886.40848  21154668.246    21154667.7184   21154672.6254
        -0.000          -0.000
  -8221941.755 9  -6394987.88748  21635493.523    21635493.5004   21635498.3454
        -0.000          -0.000
 97  3  7 22 53 59.9990000  0  7 26  2 24  4  5  7  9               -0.000742263
   4172793.041 9   3247128.41346  24405718.263    24405718.5334   24405725.2654
        -0.000          -0.000
   1860527.248 9   1448810.91447  22053774.562    22053774.2904   22053779.7954
        -0.000          -0.000
 -10940847.296 9  -8483047.92147  22383674.889    22383674.8044   22383681.1074
        -0.000          -0.000
  -7882512.666 9  -6127989.34548  20609595.571    20609595.8844   20609600.3594
        -0.000          -0.000
  -4937919.401 9  -3833626.46246  24108768.630    24108768.1164   24108774.4974
        -0.000          -0.000
   2514626.284 9   1957420.29948  21162369.170    21162368.6374   21162373.5444
        -0.000          -0.000
  -8291795.526 9  -6449419.38348  21622200.807    21622200.7924   21622205.6464
        -0.000          -0.000
 97  3  7 22 54 29.9990000  0  7 26  2 24  4  5  7  9               -0.000751820
   4228437.406 9   3290487.60346  24416307.168    24416307.4224   24416314.1934
        -0.000          -0.000
   1896944.606 9   1477188.06247  22060704.592    22060704.3224   22060709.8314
        -0.000          -0.000
 -11054187.583 9  -8571365.00447  22362106.951    22362106.9154   22362113.1404
        -0.000          -0.000
  -7943276.389 9  -6175337.67848  20598032.588    20598032.8984   20598037.3864
        -0.000          -0.000
  -5036285.027 9  -3910274.93646  24090050.373    24090049.8654   24090055.9514
        -0.000          -0.000
   2555258.460 9   1989081.73248  21170101.201    21170100.6844   21170105.6014
        -0.000          -0.000
  -8361169.938 9  -6503477.35748  21608999.257    21608999.3014   21609004.0814
        -0.000          -0.000
 97  3  7 22 54 59.9990000  0  7 26  2 24  4  5  7  9               -0.000761348
   4284132.232 9   3333886.11046  24426905.680    24426905.9054   24426912.6014
        -0.000          -0.000
   1933650.134 9   1505789.75947  22067689.537    22067689.1874   22067694.7904
        -0.000          -0.000
 -11167244.774 9  -8659461.46347  22340592.831    22340592.8204   22340599.1354
        -0.000          -0.000
  -8003482.656 9  -6222251.63448  20586575.736    20586576.0104   20586580.4954
        -0.000          -0.000
  -5134636.125 9  -3986912.09346  24071334.615    24071334.2924   24071340.3944
        -0.000          -0.000
   2596057.098 9   2020872.87548  21177864.910    21177864.3804   21177869.3144
        -0.000          -0.000
  -8430068.625 9  -6557164.63448  21595888.361    21595888.3284   21595893.0634
        -0.000          -0.000
 97  3  7 22 55 29.9990000  0  7 26  2 24  4  5  7  9               -0.000770837
   4339875.734 9   3377322.55946  24437513.384    24437513.5724   24437520.1604
        -0.000          -0.000
   1970646.519 9   1534618.08547  22074729.811    22074729.3734   22074735.1354
        -0.000          -0.000
 -11280001.225 9  -8747323.58347  22319135.918    22319135.9144   22319142.2524
        -0.000          -0.000
  -8063130.516 9  -6268730.46948  20575225.137    20575225.4184   20575229.8354
        -0.000          -0.000
  -5232959.158 9  -4063527.35946  24052624.234    24052623.9654   24052630.1174
        -0.000          -0.000
   2637039.696 9   2052807.35748  21185663.633    21185663.1014   21185668.0864
        -0.000          -0.000
  -8498495.165 9  -6610484.01048  21582867.264    21582867.1824   21582871.9424
        -0.000          -0.000
 97  3  7 22 55 59.9990000  0  7 26  2 24  4  5  7  9               -0.000780288
   4395679.586 9   3420806.03046  24448132.369    24448132.5704   24448139.2844
        -0.000          -0.000
   2007945.752 9   1563682.40447  22081827.601    22081827.2294   22081833.0914
        -0.000          -0.000
 -11392441.749 9  -8834939.55847  22297739.240    22297739.2164   22297745.4394
        -0.000          -0.000
  -8122202.468 9  -6314760.53848  20563984.107    20563984.3804   20563988.8074
        -0.000          -0.000
  -5331255.479 9  -4140121.80346  24033919.004    24033918.7154   24033924.8924
        -0.000          -0.000
   2678219.196 9   2084895.28248  21193499.816    21193499.3264   21193504.2764
        -0.000          -0.000
  -8566429.577 9  -6663419.90848  21569939.779    21569939.7214   21569944.4474
        -0.000          -0.000
 97  3  7 22 56 29.9990000  0  7 26  2 24  4  5  7  9               -0.000789719
   4451530.759 9   3464326.39346  24458760.577    24458760.8524   24458767.6044
        -0.000          -0.000
   2045539.184 9   1592975.97147  22088981.504    22088981.1264   22088986.9794
        -0.000          -0.000
 -11504607.150 9  -8922341.13447  22276394.835    22276394.8134   22276401.0164
        -0.000          -0.000
  -8180705.579 9  -6360347.35449  20552851.289    20552851.5774   20552856.0444
        -0.000          -0.000
  -5429558.161 9  -4216721.23146  24015212.718    24015212.3354   24015218.4684
        -0.000          -0.000
   2719579.626 9   2117124.18048  21201370.549    21201370.0474   21201374.9704
        -0.000          -0.000
  -8633875.711 9  -6715975.32448  21557105.173    21557105.1574   21557109.8644
        -0.000          -0.000
 97  3  7 22 56 59.9990000  0  7 26  2 24  4  5  7  9               -0.000799132
   4507444.626 8   3507895.58646  24469400.635    24469400.9464   24469407.8794
        -0.000          -0.000
   2083445.870 9   1622513.63747  22096194.910    22096194.4734   22096200.4154
        -0.000          -0.000
 -11616502.393 9  -9009532.19147  22255101.916    22255101.8834   22255108.0854
        -0.000          -0.000
  -8238621.813 9  -6405476.86749  20541830.159    20541830.4674   20541834.9514
        -0.000          -0.000
  -5527876.155 9  -4293332.58846  23996503.111    23996502.9574   23996508.9314
        -0.000          -0.000
   2761128.399 9   2149499.83648  21209277.108    21209276.5634   21209281.4694
        -0.000          -0.000
  -8700809.206 9  -6768131.28448  21544368.184    21544368.1544   21544372.9154
        -0.000          -0.000
 97  3  7 22 57 29.9990000  0  7 26  2 24  4  5  7  9               -0.000808529
   4563431.626 8   3551521.78645  24480054.726    24480054.9614   24480061.9084
        -0.000          -0.000
   2121675.320 9   1652302.79847  22103469.846    22103469.3174   22103475.1604
        -0.000          -0.000
 -11728125.643 9  -9096511.30547  22233860.684    22233860.6784   22233866.8184
        -0.000          -0.000
  -8295932.808 9  -6450134.76149  20530924.308    20530924.5974   20530928.9954
        -0.000          -0.000
  -5626212.911 9  -4369958.56545  23977790.282    23977790.0914   23977796.1104
        -0.000          -0.000
   2802855.553 9   2182014.50048  21217217.489    21217216.9574   21217221.8714
        -0.000          -0.000
  -8767213.432 9  -6819874.83048  21531731.919    21531731.8724   21531736.6104
        -0.000          -0.000
 97  3  7 22 57 59.9990000  0  7 26  2 24  4  5  7  9               -0.000817917
   4619467.463 8   3595185.99545  24490717.800    24490717.9894   24490725.0504
        -0.000          -0.000
   2160208.765 9   1682328.83147  22110802.514    22110801.9804   22110807.6884
        -0.000          -0.000
 -11839512.611 9  -9183306.31047  22212664.413    22212664.4324   22212670.5394
        -0.000          -0.000
  -8352668.688 9  -6494344.51749  20520127.862    20520128.1614   20520132.5104
        -0.000          -0.000
  -5724586.317 9  -4446613.10545  23959070.403    23959070.1914   23959076.1904
        -0.000          -0.000
   2844717.516 9   2214634.20448  21225183.460    21225182.9624   21225187.9094
        -0.000          -0.000
  -8833115.622 9  -6871227.17948  21519191.108    21519191.0644   21519195.7944
        -0.000          -0.000
 97  3  7 22 58 29.9990000  0  7 26  2 24  4  5  7  9               -0.000827279
   4675552.772 8   3638888.73445  24501390.697    24501390.6404   24501397.7374
        -0.000          -0.000
   2199054.198 9   1712597.98147  22118194.597    22118194.0624   22118199.5884
        -0.000          -0.000
 -11950653.944 9  -9269909.91247  22191514.961    22191514.9344   22191521.1014
        -0.000          -0.000
  -8408830.247 9  -6538106.74949  20509440.698    20509440.9794   20509445.2654
        -0.000          -0.000
  -5822972.660 9  -4523277.71945  23940347.965    23940347.7234   23940353.7684
        -0.000          -0.000
   2886710.834 9   2247356.26348  21233174.569    21233174.0304   21233178.9744
        -0.000          -0.000
  -8898522.260 9  -6922193.37848  21506744.643    21506744.5904   21506749.2884
        -0.000          -0.000
 97  3  7 22 58 59.9990000  0  7 26  2 24  4  5  7  9               -0.000836605
   4731693.678 8   3682634.82345  24512074.117    24512074.1144   24512081.1814
        -0.000          -0.000
   2238212.375 9   1743110.82047  22125646.315    22125645.7344   22125651.0074
        -0.000          -0.000
 -12061517.044 9  -9356296.71047  22170418.383    22170418.3494   22170424.4424
        -0.000          -0.000
  -8464410.161 9  -6581415.74949  20498864.176    20498864.4814   20498868.7434
        -0.000          -0.000
  -5921345.041 9  -4599931.46945  23921628.212    23921627.9224   23921633.9114
        -0.000          -0.000
   2928842.828 9   2280186.38548  21241192.009    21241191.4794   21241196.3764
        -0.000          -0.000
  -8963425.111 9  -6972767.02548  21494394.041    21494393.9714   21494398.5944
        -0.000          -0.000
 97  3  7 22 59 29.9990000  0  7 26  2 24  4  5  7  9               -0.000845909
   4787858.959 8   3726399.90945  24522762.082    24522762.0664   24522769.0624
        -0.000          -0.000
   2277647.376 9   1773839.38447  22133150.581    22133150.0194   22133155.1024
        -0.000          -0.000
 -12172100.553 9  -9442465.64247  22149375.008    22149374.9274   22149381.0464
        -0.000          -0.000
  -8519432.376 9  -6624290.18149  20488393.773    20488394.0704   20488398.4094
        -0.000          -0.000
  -6019706.147 9  -4676576.42745  23902910.609    23902910.3494   23902916.3214
        -0.000          -0.000
   2971092.683 9   2313108.34248  21249231.923    21249231.3834   21249236.2514
        -0.000          -0.000
  -9027851.802 9  -7022969.62848  21482134.054    21482133.9984   21482138.5394
        -0.000          -0.000
 97  3  7 22 59 59.9990000  0  7 26  2 24  4  5  7  9               -0.000855200
   4844031.968 8   3770171.00845  24533451.281    24533451.3144   24533458.4804
        -0.000          -0.000
   2317349.641 9   1804776.19247  22140705.793    22140705.1994   22140710.2004
        -0.000          -0.000
 -12282392.715 9  -9528407.55047  22128387.031    22128386.9764   22128393.1744
        -0.000          -0.000
  -8573893.196 9  -6666727.16249  20478030.159    20478030.4944   20478034.8694
        -0.000          -0.000
  -6118053.668 9  -4753210.78345  23884195.694    23884195.4164   23884201.3504
        -0.000          -0.000
   3013464.164 9   2346125.07248  21257294.952    21257294.4314   21257299.3064
        -0.000          -0.000
  -9091802.329 9  -7072801.20248  21469964.678    21469964.6034   21469969.1674
        -0.000          -0.000
 97  3  7 23  0 29.9990000  0  7 26  2 24  4  5  7  9               -0.000864498
   4900205.032 8   3813942.15545  24544140.718    24544140.8454   24544147.8174
        -0.000          -0.000
   2357314.948 9   1835917.97747  22148310.917    22148310.3144   22148315.4564
        -0.000          -0.000
 -12392379.530 9  -9614111.51947  22107457.274    22107457.1464   22107463.3484
        -0.000          -0.000
  -8627777.314 9  -6708714.76149  20467776.333    20467776.6634   20467781.0474
        -0.000          -0.000
  -6216398.580 8  -4829843.10345  23865481.207    23865480.8324   23865486.8644
        -0.000          -0.000
   3055970.792 9   2379247.10948  21265383.726    21265383.1924   21265388.1294
        -0.000          -0.000
  -9155246.954 9  -7122238.56048  21457891.551    21457891.4814   21457896.0714
        -0.000          -0.000
 97  3  7 23  0 59.9990000  0  7 26  2 24  4  5  7  9               -0.000873825
   4956349.779 8   3857691.26245  24554824.509    24554824.8494   24554831.6754
        -0.000          -0.000
   2397521.055 9   1867247.38447  22155961.741    22155961.1884   22155966.5714
        -0.000          -0.000
 -12502084.322 9  -9699595.73247  22086580.978    22086580.9184   22086587.1714
        -0.000          -0.000
  -8681099.743 9  -6750264.68849  20457629.476    20457629.7784   20457634.1034
        -0.000          -0.000
  -6314766.730 9  -4906493.53945  23846762.280    23846761.9914   23846767.9884
        -0.000          -0.000
   3098598.820 9   2412463.75048  21273495.562    21273494.9964   21273499.9964
        -0.000          -0.000
  -9218194.458 9  -7171288.54648  21445912.992    21445912.9144   21445917.6484
        -0.000          -0.000
 97  3  7 23  1 29.9990000  0  7 26  2 24  4  5  7  9               -0.000883151
   5012494.253 8   3901440.12945  24565508.687    24565508.7824   24565515.8004
        -0.000          -0.000
   2438016.714 9   1898802.42347  22163667.619    22163667.1034   22163672.8154
        -0.000          -0.000
 -12611491.016 9  -9784847.66347  22065761.607    22065761.5214   22065767.6894
        -0.000          -0.000
  -8733817.038 9  -6791343.08149  20447597.750    20447598.0424   20447602.3014
        -0.000          -0.000
  -6413122.333 9  -4983134.19845  23828045.871    23828045.3684   23828051.4734
        -0.000          -0.000
   3141389.921 9   2445807.46248  21281638.375    21281637.8794   21281642.8894
        -0.000          -0.000
  -9280612.590 9  -7219926.04248  21434035.137    21434035.1364   21434039.8494
        -0.000          -0.000
 97  3  7 23  1 59.9990000  0  7 26  2 24  4  5  7  9               -0.000892478
   5068632.402 8   3945184.10145  24576191.470    24576191.4874   24576198.5194
        -0.000          -0.000
   2478817.059 9   1930594.86947  22171431.521    22171431.0774   22171437.0504
        -0.000          -0.000
 -12720608.475 9  -9869874.22447  22044997.250    22044997.1264   22045003.3164
        -0.000          -0.000
  -8785929.373 9  -6831950.07449  20437681.091    20437681.3584   20437685.6304
        -0.000          -0.000
  -6511486.731 9  -5059781.73845  23809327.784    23809327.4164   23809333.0144
        -0.000          -0.000
   3184339.794 9   2479274.88548  21289811.496    21289811.0104   21289815.9784
        -0.000          -0.000
  -9342504.910 9  -7268153.82048  21422257.427    21422257.4504   21422262.1374
        -0.000          -0.000
 97  3  7 23  2 29.9990000  0  7 26  2 24  4  5  7  9               -0.000901805
   5124750.537 8   3988912.47945  24586870.380    24586870.3744   24586877.5124
        -0.000          -0.000
   2519913.062 9   1962617.71147  22179251.899    22179251.4834   22179257.5384
        -0.000          -0.000
 -12829445.185 9  -9954682.01547  22024286.351    22024286.2644   22024292.3714
        -0.000          -0.000
  -8837465.814 9  -6872108.31649  20427873.959    20427874.2274   20427878.5794
        -0.000          -0.000
  -6609886.095 9  -5136456.49045  23790603.044    23790602.5704   23790608.2844
        -0.000          -0.000
   3227426.752 9   2512849.12448  21298010.846    21298010.2944   21298015.1924
        -0.000          -0.000
  -9403896.227 9  -7315991.20248  21410575.180    21410575.1574   21410579.7264
        -0.000          -0.000
 97  3  7 23  2 59.9990000  0  7 26  2 24  4  5  7  9               -0.000911089
   5180893.736 9   4032660.37345  24597554.197    24597554.2364   24597561.3034
        -0.000          -0.000
   2561350.711 9   1994906.78147  22187137.398    22187137.0054   22187142.8964
        -0.000          -0.000
 -12937957.921 9 -10039237.36247  22003637.114    22003637.0194   22003643.0524
        -0.000          -0.000
  -8888395.640 9  -6911793.87449  20418182.184    20418182.4874   20418186.8944
        -0.000          -0.000
  -6708269.083 9  -5213118.48846  23771881.094    23771880.7594   23771886.7274
        -0.000          -0.000
   3270677.862 9   2546551.27748  21306241.189    21306240.6864   21306245.5974
        -0.000          -0.000
  -9464773.089 9  -7363427.71348  21398990.745    21398990.7174   21398995.1954
        -0.000          -0.000
 97  3  7 23  3 29.9990000  0  7 26  2 24  4  5  7  9               -0.000920333
   5237051.351 9   4076419.48245  24608240.884    24608241.0194   24608247.7644
        -0.000          -0.000
   2603123.444 9   2027456.94847  22195086.661    22195086.2714   22195091.9784
        -0.000          -0.000
 -13046144.259 9 -10123538.36247  21983049.908    21983049.8514   21983055.8564
        -0.000          -0.000
  -8938733.784 9  -6951018.38049  20408603.085    20408603.4084   20408607.8334
        -0.000          -0.000
  -6806651.154 9  -5289779.77746  23753159.675    23753159.2604   23753165.1304
        -0.000          -0.000
   3314080.640 9   2580371.61848  21314500.456    21314499.9494   21314504.8504
        -0.000          -0.000
  -9525152.905 9  -7410476.90648  21387500.819    21387500.7814   21387505.3134
        -0.000          -0.000
 97  3  7 23  3 59.9990000  0  7 26  2 24  4  5  7  9               -0.000929552
   5293216.374 9   4120184.38545  24618928.741    24618928.8804   24618935.7884
        -0.000          -0.000
   2645204.209 9   2060247.13747  22203094.453    22203094.0584   22203099.6714
        -0.000          -0.000
 -13153999.201 9 -10207581.13747  21962525.793    21962525.7104   21962531.7174
        -0.000          -0.000
  -8988505.577 9  -6989801.57549  20399131.743    20399132.1254   20399136.5614
        -0.000          -0.000
  -6905060.553 9  -5366462.38346  23734432.956    23734432.6144   23734438.5674
        -0.000          -0.000
   3357613.800 9   2614293.55248  21322784.523    21322783.9944   21322789.0004
        -0.000          -0.000
  -9585050.061 9  -7457150.01048  21376102.728    21376102.7024   21376107.2624
        -0.000          -0.000
 97  3  7 23  4 29.9990000  0  7 26  2 24  4  5  7  9               -0.000938749
   5349399.999 9   4163963.77945  24629620.202    24629620.2794   24629627.1194
        -0.000          -0.000
   2687571.174 9   2093260.31547  22211156.714    22211156.2274   22211161.8384
        -0.000          -0.000
 -13261524.856 9 -10291367.32347  21942064.331    21942064.2554   21942070.2274
        -0.000          -0.000
  -9037700.486 9  -7028135.24849  20389770.264    20389770.6364   20389775.0414
        -0.000          -0.000
  -7003468.755 9  -5443144.05446  23715706.491    23715706.1584   23715711.9784
        -0.000          -0.000
   3401282.090 9   2648320.78348  21331094.298    21331093.8014   21331098.8524
        -0.000          -0.000
  -9644445.761 9  -7503432.35948  21364799.997    21364799.9974   21364804.6364
        -0.000          -0.000
 97  3  7 23  4 59.9990000  0  6  2 24  4  5  7  9                  -0.000947755
   2730197.443 9   2126475.53547  22219268.009    22219267.6214   22219273.3064
        -0.000          -0.000
 -13368751.247 9 -10374920.30947  21921659.759    21921659.6814   21921665.7414
        -0.000          -0.000
  -9086314.425 9  -7066016.22349  20380519.362    20380519.7204   20380524.1274
        -0.000          -0.000
  -7101879.093 9  -5519827.34946  23696979.641    23696979.2034   23696985.0854
        -0.000          -0.000
   3445088.552 9   2682455.67548  21339430.469    21339429.9704   21339434.9654
        -0.000          -0.000
  -9703337.135 9  -7549321.73648  21353593.362    21353593.3654   21353598.0334
        -0.000          -0.000
 97  3  7 23  5 29.9990000  0  6  2 24  4  5  7  9                  -0.000956956
   2773071.330 9   2159883.72647  22227426.500    22227426.1444   22227431.9514
        -0.000          -0.000
 -13475694.421 9 -10458252.60947  21901309.111    21901309.0694   21901315.1024
        -0.000          -0.000
  -9134337.798 9  -7103437.01149  20371380.846    20371381.1764   20371385.5654
        -0.000          -0.000
  -7200300.768 9  -5596519.51846  23678250.426    23678250.1194   23678256.0384
        -0.000          -0.000
   3489040.487 9   2716703.92448  21347794.315    21347793.7604   21347798.7464
        -0.000          -0.000
  -9761701.218 9  -7594800.23848  21342487.116    21342487.0944   21342491.7274
        -0.000          -0.000
 97  3  7 23  5 59.9990000  0  6  2 24  4  5  7  9                  -0.000966190
   2816201.376 9   2193491.52647  22235633.841    22235633.4724   22235639.3534
        -0.000          -0.000
 -13582363.084 9 -10541371.00847  21881010.743    21881010.7024   21881016.7354
        -0.000          -0.000
  -9181760.318 9  -7140389.60449  20362356.639    20362356.9734   20362361.3774
        -0.000          -0.000
  -7298725.160 9  -5673213.78046  23659520.894    23659520.6244   23659526.5904
        -0.000          -0.000
   3533132.010 9   2751060.94948  21356184.582    21356184.0714   21356189.0664
        -0.000          -0.000
  -9819518.983 9  -7639853.04148  21331484.743    21331484.7204   21331489.3524
        -0.000          -0.000
 97  3  7 23  6 29.9990000  0  6  2 24  4  5  7  9                  -0.000975453
   2859607.111 9   2227314.17247  22243893.718    22243893.3234   22243899.1874
        -0.000          -0.000
 -13688764.610 9 -10624281.24347  21860763.108    21860763.0994   21860769.1364
        -0.000          -0.000
  -9228567.334 9  -7176862.58749  20353449.607    20353449.9104   20353454.3014
        -0.000          -0.000
  -7397140.622 9  -5749901.10846  23640792.975    23640792.6404   23640798.5264
        -0.000          -0.000
   3577361.448 9   2785525.43348  21364601.174    21364600.6654   21364605.5964
        -0.000          -0.000
  -9876781.922 9  -7684473.50348  21320587.998    21320587.9644   21320592.5894
        -0.000          -0.000
 97  3  7 23  6 59.9990000  0  6  2 24  4  5  7  9                  -0.000984725
   2903321.211 9   2261377.09447  22252212.261    22252211.9344   22252217.6644
        -0.000          -0.000
 -13794887.080 9 -10706974.02747  21840568.583    21840568.5894   21840574.7024
        -0.000          -0.000
  -9274769.333 9  -7212864.12349  20344657.678    20344657.9864   20344662.3274
        -0.000          -0.000
  -7495562.943 9  -5826593.78046  23622063.971    23622063.5664   23622069.3284
        -0.000          -0.000
   3621718.833 9   2820089.61848  21373042.227    21373041.6914   21373046.5604
        -0.000          -0.000
  -9933497.578 9  -7728667.51848  21309795.339    21309795.3464   21309799.9134
        -0.000          -0.000
 97  3  7 23  7 29.9990000  0  6  2 24  4  5  7  9                  -0.000993974
   2947379.811 9   2295708.45047  22260596.476    22260596.0304   22260601.6754
        -0.000          -0.000
 -13900698.056 9 -10789424.11447  21820433.477    21820433.4784   21820439.4834
        -0.000          -0.000
  -9320366.087 9  -7248394.04349  20335980.923    20335981.2334   20335985.5374
        -0.000          -0.000
  -7593980.741 9  -5903282.90846  23603335.578    23603335.0514   23603340.9634
        -0.000          -0.000
   3666196.309 9   2854747.37348  21381505.971    21381505.4324   21381510.3574
        -0.000          -0.000
  -9989663.095 9  -7772432.84648  21299107.383    21299107.3554   21299111.9414
        -0.000          -0.000
 97  3  7 23  7 59.9990000  0  6  2 24  4  5  7  9                  -0.001003198
   2991752.152 9   2330284.27747  22269040.375    22269039.7654   22269045.5004
        -0.000          -0.000
 -14006209.303 9 -10871640.62747  21800355.296    21800355.2784   21800361.3054
        -0.000          -0.000
  -9365405.802 9  -7283489.91149  20327410.193    20327410.4964   20327414.7494
        -0.000          -0.000
  -7692429.610 9  -5979996.27246  23584601.274    23584600.9804   23584606.8354
        -0.000          -0.000
   3710746.658 9   2889461.92248  21389983.585    21389983.0934   21389988.0434
        -0.000          -0.000
 -10045336.609 9  -7815814.80248  21288513.012    21288513.0194   21288517.6004
        -0.000          -0.000
 97  3  7 23  8 29.9980000  0  6  2 24  4  5  7  9                  -0.001012387
   3036432.681 9   2365100.23747  22277542.787    22277542.2284   22277548.0594
        -0.000          -0.000
 -14111388.542 9 -10953598.43147  21780340.389    21780340.3044   21780346.3684
        -0.000          -0.000
  -9409878.130 9  -7318143.65749  20318947.403    20318947.7054   20318951.9564
        -0.000          -0.000
  -7790889.111 9  -6056717.91446  23565865.221    23565864.8524   23565870.6804
        -0.000          -0.000
   3755382.332 9   2924242.96448  21398477.476    21398476.9634   21398481.9524
        -0.000          -0.000
 -10100517.120 9  -7858812.58948  21278012.578    21278012.4984   21278017.1104
        -0.000          -0.000
 97  3  7 23  8 59.9980000  0  6  2 24  4  5  7  9                  -0.001021539
   3081414.171 9   2400150.70447  22286102.540    22286102.0924   22286107.9034
        -0.000          -0.000
 -14216226.269 9 -11035290.12747  21760390.297    21760390.2654   21760396.3204
        -0.000          -0.000
  -9453782.043 9  -7352354.48549  20310592.773    20310593.0794   20310597.3504
        -0.000          -0.000
  -7889355.803 9  -6133445.13746  23547127.504    23547127.1934   23547133.0664
        -0.000          -0.000
   3800116.735 9   2959100.92948  21406990.212    21406989.6704   21406994.6904
        -0.000          -0.000
 -10155207.777 9  -7901428.68848  21267605.343    21267605.2634   21267609.8414
        -0.000          -0.000
 97  3  7 23  9 29.9980000  0  6  2 24  4  5  7  9                  -0.001030677
   3126656.192 9   2435404.19747  22294712.108    22294711.5824   22294717.3274
        -0.000          -0.000
 -14320724.741 9 -11116717.47447  21740504.985    21740504.8924   21740510.8704
        -0.000          -0.000
  -9497114.332 9  -7386119.88849  20302346.899    20302347.2184   20302351.4894
        -0.000          -0.000
  -7987836.097 9  -6210182.97146  23528387.210    23528386.9174   23528392.8094
        -0.000          -0.000
   3844945.965 9   2994032.78348  21415520.991    21415520.4344   21415525.4764
        -0.000          -0.000
 -10209423.154 9  -7943674.42348  21257288.463    21257288.3964   21257293.0144
        -0.000          -0.000
 97  3  7 23  9 59.9980000  0  6  2 24  4  5  7  9                  -0.001039830
   3172127.118 9   2470836.06247  22303365.305    22303364.5724   22303370.2754
        -0.000          -0.000
 -14424893.512 9 -11197887.90847  21720682.196    21720682.1154   21720688.1384
        -0.000          -0.000
  -9539863.565 9  -7419430.96349  20294211.943    20294212.2494   20294216.5534
        -0.000          -0.000
  -8086330.197 9  -6286931.56046  23509644.386    23509644.1024   23509649.9744
        -0.000          -0.000
   3889875.749 9   3029042.98748  21424070.819    21424070.3154   21424075.3164
        -0.000          -0.000
 -10263158.664 9  -7985546.24748  21247062.855    21247062.8544   21247067.4864
        -0.000          -0.000
 97  3  7 23 10 29.9980000  0  6  2 24  4  5  7  9                  -0.001049012
   3217817.953 9   2506439.28247  22312059.942    22312059.2424   22312064.9264
        -0.000          -0.000
 -14528735.367 9 -11278803.58947  21700921.672    21700921.6544   21700927.6984
        -0.000          -0.000
  -9582012.254 9  -7452274.08249  20286191.307    20286191.5924   20286195.8894
        -0.000          -0.000
  -8184829.371 9  -6363684.10346  23490900.655    23490900.2584   23490906.0504
        -0.000          -0.000
   3934906.112 9   3064131.57748  21432639.826    21432639.2834   21432644.2394
        -0.000          -0.000
 -10316398.242 9  -8027031.62248  21236931.701    21236931.6584   21236936.3184
        -0.000          -0.000
 97  3  7 23 10 59.9980000  0  6  2 24  4  5  7  9                  -0.001058232
   3263733.571 9   2542217.64947  22320797.232    22320796.6044   22320802.3244
        -0.000          -0.000
 -14632250.705 9 -11359464.84547  21681223.298    21681223.3214   21681229.3594
        -0.000          -0.000
  -9623560.157 9  -7484649.06149  20278284.936    20278285.2254   20278289.5394
        -0.000          -0.000
  -8283346.356 9  -6440450.51846  23472153.423    23472153.0274   23472158.8174
        -0.000          -0.000
   3980041.351 9   3099301.87848  21441228.691    21441228.1874   21441233.2224
        -0.000          -0.000
 -10369132.530 9  -8068123.27748  21226896.671    21226896.6354   21226901.2914
        -0.000          -0.000
 97  3  7 23 11 29.9980000  0  6  2 24  4  5  7  9                  -0.001067484
   3309879.392 9   2578175.40347  22329578.421    22329577.8554   22329583.5304
        -0.000          -0.000
 -14735433.837 9 -11439867.24747  21661588.173    21661588.2044   21661594.2054
        -0.000          -0.000
  -9664510.171 9  -7516558.15049  20270492.386    20270492.7004   20270496.9924
        -0.000          -0.000
  -8381873.575 9  -6517224.93946  23453404.264    23453403.9774   23453409.6434
        -0.000          -0.000
   4025289.348 9   3134560.04748  21449839.087    21449838.5864   21449843.6864
        -0.000          -0.000
 -10421347.541 9  -8108810.29448  21216960.523    21216960.4744   21216965.0684
        -0.000          -0.000
 97  3  7 23 11 59.9980000  0  6  2 24  4  5  7  9                  -0.001076746
   3356288.786 9   2614338.54747  22338409.953    22338409.2814   22338414.8914
        -0.000          -0.000
 -14838277.809 9 -11520005.36647  21642017.628    21642017.6834   21642023.6174
        -0.000          -0.000
  -9704864.320 9  -7548002.92849  20262813.257    20262813.5664   20262817.8704
        -0.000          -0.000
  -8480393.132 9  -6593993.36946  23434656.629    23434656.2254   23434661.8274
        -0.000          -0.000
   4070658.900 9   3169912.93448  21458472.668    21458472.1394   21458477.2984
        -0.000          -0.000
 -10473019.265 9  -8149073.97148  21207127.712    21207127.6214   21207132.2354
        -0.000          -0.000
 97  3  7 23 12 29.9980000  0  6  2 24  4  5  7  9                  -0.001085999
   3402991.438 9   2650730.19847  22347297.130    22347296.4694   22347302.0724
        -0.000          -0.000
 -14940780.036 9 -11599877.18147  21622512.031    21622512.0574   21622518.0644
        -0.000          -0.000
  -9744634.534 9  -7578992.68949  20255245.202    20255245.5054   20255249.8334
        -0.000          -0.000
  -8578910.773 9  -6670760.32846  23415909.363    23415908.9034   23415914.6504
        -0.000          -0.000
   4116143.723 9   3205355.64248  21467128.178    21467127.6774   21467132.8114
        -0.000          -0.000
 -10524146.167 9  -8188913.10448  21197398.656    21197398.6264   21197403.1644
        -0.000          -0.000
 97  3  7 23 12 59.9980000  0  6  2 24  4  5  7  9                  -0.001095235
   3450008.482 9   2687366.82347  22356244.048    22356243.5254   22356249.1464
        -0.000          -0.000
 -15042948.375 9 -11679488.82347  21603069.958    21603070.0464   21603076.0784
        -0.000          -0.000
  -9783836.638 9  -7609539.76949  20247785.248    20247785.5704   20247789.9424
        -0.000          -0.000
  -8677436.932 9  -6747533.90046  23397160.236    23397159.9734   23397165.8174
        -0.000          -0.000
   4161750.358 9   3240893.26948  21475806.871    21475806.3594   21475811.4354
        -0.000          -0.000
 -10574726.192 9  -8228326.11248  21187773.672    21187773.6304   21187778.1054
        -0.000          -0.000
 97  3  7 23 13 29.9980000  0  6  2 24  4  5  7  9                  -0.001104437
   3497353.123 9   2724258.72447  22365253.501    22365253.0574   22365258.6244
        -0.000          -0.000
 -15144780.694 9 -11758838.64447  21583692.029    21583692.0514   21583698.0374
        -0.000          -0.000
  -9822461.134 9  -7639636.76249  20240435.164    20240435.5084   20240439.9114
        -0.000          -0.000
  -8775954.409 9  -6824300.72646  23378413.064    23378412.7624   23378418.5114
        -0.000          -0.000
   4207468.617 9   3276517.88247  21484506.663    21484506.1764   21484511.2794
        -0.000          -0.000
 -10624756.833 9  -8267311.02548  21178253.141    21178253.1304   21178257.6274
        -0.000          -0.000
 97  3  7 23 13 59.9980000  0  6  2 24  4  5  7  9                  -0.001113598
   3545044.788 9   2761421.01947  22374329.078    22374328.5744   22374334.2034
        -0.000          -0.000
 -15246265.980 9 -11837918.04647  21564380.079    21564380.0304   21564385.9434
        -0.000          -0.000
  -9860492.513 9  -7669271.59149  20233197.998    20233198.3384   20233202.7744
        -0.000          -0.000
  -8874459.932 9  -6901058.20946  23359667.976    23359667.6194   23359673.5464
        -0.000          -0.000
   4253287.047 9   3312220.54248  21493225.593    21493225.1304   21493230.2104
        -0.000          -0.000
 -10674240.591 9  -8305869.79848  21168836.698    21168836.6294   21168841.2014
        -0.000          -0.000
 97  3  7 23 14 29.9980000  0  6  2 24  4  5  7  9                  -0.001122741
   3593041.973 9   2798821.37947  22383462.861    22383462.2324   22383467.8754
        -0.000          -0.000
 -15347413.841 9 -11916734.51747  21545132.205    21545132.1564   21545138.0834
        -0.000          -0.000
  -9897942.565 9  -7698453.43349  20226071.523    20226071.8624   20226076.3024
        -0.000          -0.000
  -8972978.522 9  -6977825.89746  23340920.480    23340920.0284   23340925.9704
        -0.000          -0.000
   4299179.462 9   3347980.85148  21501958.786    21501958.2844   21501963.2824
        -0.000          -0.000
 -10723215.104 9  -8344031.75448  21159517.122    21159517.0414   21159521.6434
        -0.000          -0.000
 97  3  7 23 14 59.9980000  0  6  2 24  4  5  7  9                  -0.001131865
   3641323.036 9   2836442.96147  22392650.394    22392649.7914   22392655.5554
        -0.000          -0.000
 -15448214.629 9 -11995280.54247  21525950.361    21525950.3844   21525956.3024
        -0.000          -0.000
  -9934809.221 9  -7727180.68549  20219056.057    20219056.3794   20219060.8024
        -0.000          -0.000
  -9071488.898 9  -7054587.19046  23322174.333    23322174.1054   23322179.8364
        -0.000          -0.000
   4345152.318 9   3383803.85048  21510707.162    21510706.6284   21510711.7254
        -0.000          -0.000
 -10771683.874 9  -8381799.62448  21150293.748    21150293.6964   21150298.3984
        -0.000          -0.000
 97  3  7 23 15 29.9980000  0  6  2 24  4  5  7  9                  -0.001140970
   3689865.014 9   2874267.85447  22401887.565    22401887.0164   22401892.8104
        -0.000          -0.000
 -15548667.105 9 -12073555.17247  21506834.931    21506834.9284   21506840.8084
        -0.000          -0.000
  -9971090.820 9  -7755452.05049  20212151.888    20212152.2184   20212156.6134
        -0.000          -0.000
  -9169979.690 9  -7131333.22846  23303432.281    23303431.9804   23303437.4654
        -0.000          -0.000
   4391198.633 9   3419684.08747  21519469.495    21519468.9524   21519474.1024
        -0.000          -0.000
 -10819660.334 9  -8419183.87748  21141164.097    21141164.0674   21141168.7294
        -0.000          -0.000
 97  3  7 23 15 59.9980000  0  6  2 24  4  5  7  9                  -0.001150067
   3738670.424 9   2912298.03947  22411174.966    22411174.4074   22411180.1744
        -0.000          -0.000
 -15648759.087 9 -12151548.87747  21487787.983    21487787.9544   21487793.9004
        -0.000          -0.000
 -10006777.652 9  -7783259.95349  20205360.968    20205361.2794   20205365.6404
        -0.000          -0.000
  -9268450.759 9  -7208063.86546  23284693.868    23284693.4634   23284699.1124
        -0.000          -0.000
   4437340.750 9   3455638.97947  21528250.132    21528249.5634   21528254.6104
        -0.000          -0.000
 -10867128.614 9  -8456172.13948  21132131.154    21132131.1404   21132135.7764
        -0.000          -0.000
 97  3  7 23 16 29.9980000  0  6  2 24  4  5  7  9                  -0.001159170
   3787725.664 9   2950522.89347  22420509.758    22420509.2654   22420515.1094
        -0.000          -0.000
 -15748496.179 9 -12229266.06547  21468808.588    21468808.5334   21468814.4794
        -0.000          -0.000
 -10041865.139 9  -7810600.84449  20198684.120    20198684.4224   20198688.7434
        -0.000          -0.000
  -9366893.799 9  -7284772.66846  23265960.705    23265960.3114   23265966.0464
        -0.000          -0.000
   4483590.476 9   3491677.71047  21537051.202    21537050.6604   21537055.6954
        -0.000          -0.000
 -10914058.906 9  -8492741.19548  21123200.674    21123200.6524   21123205.2034
        -0.000          -0.000
 97  3  7 23 16 59.9980000  0  6  2 24  4  5  7  9                  -0.001168285
   3837034.544 9   2988945.38047  22429892.692    22429892.3294   22429898.3024
        -0.000          -0.000
 -15847894.625 9 -12306719.36748  21449893.632    21449893.6184   21449899.5584
        -0.000          -0.000
 -10076349.173 9  -7837471.51149  20192122.119    20192122.3844   20192126.6374
        -0.000          -0.000
  -9465304.566 9  -7361456.34746  23247233.772    23247233.4354   23247238.9704
        -0.000          -0.000
   4529940.090 9   3527794.28047  21545871.143    21545870.6744   21545875.8424
        -0.000          -0.000
 -10960434.166 9  -8528877.76048  21114375.785    21114375.7424   21114380.2424
        -0.000          -0.000
 97  3  7 23 17 29.9980000  0  6  2 24  4  5  7  9                  -0.001177439
   3886592.652 9   3027562.06447  22439323.248    22439322.8414   22439329.0154
        -0.000          -0.000
 -15946967.002 9 -12383918.59048  21431040.775    21431040.7594   21431046.6934
        -0.000          -0.000
 -10110230.706 9  -7863872.69149  20185674.665    20185674.9484   20185679.1594
        -0.000          -0.000
  -9563723.530 9  -7438146.39646  23228505.287    23228504.9104   23228510.3714
        -0.000          -0.000
   4576370.635 9   3563973.91647  21554706.602    21554706.1174   21554711.2574
        -0.000          -0.000
 -11006259.348 9  -8564585.69148  21105655.582    21105655.5394   21105660.0044
        -0.000          -0.000
 97  3  7 23 17 59.9980000  0  6  2 24  4  5  7  9                  -0.001186638
   3936400.232 9   3066373.12647  22448801.122    22448800.6994   22448807.1174
        -0.000          -0.000
 -16045714.399 9 -12460864.58148  21412249.702    21412249.7184   21412255.6834
        -0.000          -0.000
 -10143511.018 9  -7889805.39349  20179341.648    20179341.9424   20179346.1124
        -0.000          -0.000
  -9662163.907 9  -7514853.12646  23209772.653    23209772.2594   23209777.8134
        -0.000          -0.000
   4622861.644 9   3600200.66647  21563553.636    21563553.1234   21563558.1314
        -0.000          -0.000
 -11051535.220 9  -8599865.59348  21097039.811    21097039.7634   21097044.2414
        -0.000          -0.000
 97  3  7 23 18 29.9980000  0  6  2 24  4  5  7  9                  -0.001195872
   3986449.742 9   3105372.69247  22458324.876    22458324.6164   22458331.2284
        -0.000          -0.000
 -16144134.349 9 -12537555.43048  21393521.006    21393521.0444   21393526.9144
        -0.000          -0.000
 -10176195.754 9  -7915274.01049  20173121.964    20173122.2384   20173126.3754
        -0.000          -0.000
  -9760611.144 9  -7591565.21246  23191038.795    23191038.3284   23191043.8524
        -0.000          -0.000
   4669401.578 9   3636465.53047  21572409.964    21572409.4524   21572414.3514
        -0.000          -0.000
 -11096276.169 9  -8634728.66548  21088525.908    21088525.8974   21088530.4034
        -0.000          -0.000
 97  3  7 23 18 59.9980000  0  6  2 24  4  5  7  9                  -0.001205121
   4036761.384 9   3144576.53347  22467898.748    22467898.5774   22467905.2364
        -0.000          -0.000
 -16242214.940 9 -12613981.83048  21374856.833    21374856.8754   21374862.7744
        -0.000          -0.000
 -10208287.686 9  -7940280.70049  20167015.054    20167015.3464   20167019.4624
        -0.000          -0.000
  -9859073.239 9  -7668288.89146  23172301.997    23172301.5804   23172307.1234
        -0.000          -0.000
   4715997.738 9   3672774.21547  21581276.981    21581276.4934   21581281.3104
        -0.000          -0.000
 -11140517.646 9  -8669202.54948  21080107.015    21080107.0654   21080111.5264
        -0.000          -0.000
 97  3  7 23 19 29.9980000  0  6  2 24  4  5  7  9                  -0.001214359
   4087359.126 9   3184003.32947  22477527.369    22477527.1214   22477533.5394
        -0.000          -0.000
 -16339927.194 9 -12690121.22048  21356262.841    21356262.8974   21356268.7674
        -0.000          -0.000
 -10239782.295 9  -7964821.94949  20161021.804    20161022.0954   20161026.1804
        -0.000          -0.000
  -9957535.683 9  -7745012.81246  23153565.125    23153564.7714   23153570.3604
        -0.000          -0.000
   4762670.088 9   3709142.27347  21590158.424    21590157.8854   21590162.8214
        -0.000          -0.000
 -11184263.361 9  -8703290.11548  21071782.527    21071782.5494   21071787.0634
        -0.000          -0.000
 97  3  7 23 19 59.9980000  0  6  2 24  4  5  7  9                  -0.001223582
   4138230.002 9   3223642.95247  22487207.858    22487207.6404   22487213.8434
        -0.000          -0.000
 -16437275.789 9 -12765977.23148  21337737.989    21337738.0024   21337743.9284
        -0.000          -0.000
 -10270689.327 9  -7988905.34149  20155140.368    20155140.7064   20155144.7484
        -0.000          -0.000
 -10055982.580 9  -7821724.63346  23134831.402    23134830.9904   23134836.5534
        -0.000          -0.000
   4809412.637 9   3745565.02747  21599053.162    21599052.5874   21599057.6404
        -0.000          -0.000
 -11227520.078 9  -8736996.65248  21063550.988    21063551.0074   21063555.5434
        -0.000          -0.000
 97  3  7 23 20 29.9980000  0  6  2 24  4  5  7  9                  -0.001232794
   4189380.762 9   3263500.67846  22496941.791    22496941.5114   22496947.4024
        -0.000          -0.000
 -16534252.799 9 -12841543.69748  21319283.864    21319283.9174   21319289.8054
        -0.000          -0.000
 -10301003.023 9  -8012526.39149  20149371.859    20149372.1804   20149376.2134
        -0.000          -0.000
 -10154413.739 9  -7898424.18846  23116100.502    23116100.1464   23116105.6834
        -0.000          -0.000
   4856250.955 9   3782062.41047  21607966.226    21607965.6964   21607970.7624
        -0.000          -0.000
 -11270267.435 9  -8770306.26648  21055416.474    21055416.4784   21055421.0394
        -0.000          -0.000
 97  3  7 23 20 59.9980000  0  6  2 24  4  5  7  9                  -0.001241993
   4240845.127 9   3303602.76346  22506735.664    22506735.1224   22506740.6824
        -0.000          -0.000
 -16630845.683 9 -12916810.84748  21300902.891    21300902.9024   21300908.7374
        -0.000          -0.000
 -10330709.519 9  -8035674.29949  20143718.873    20143719.1834   20143723.1974
        -0.000          -0.000
 -10252839.521 9  -7975119.56446  23097370.819    23097370.4234   23097375.9704
        -0.000          -0.000
   4903195.659 9   3818642.68547  21616899.630    21616899.0424   21616904.0284
        -0.000          -0.000
 -11312470.291 9  -8803191.60948  21047385.499    21047385.4884   21047390.0544
        -0.000          -0.000
 97  3  7 23 21 29.9980000  0  6  2 24  4  5  7  9                  -0.001251208
   4292587.327 9   3343921.31746  22516582.175    22516581.5554   22516586.9164
        -0.000          -0.000
 -16727068.638 9 -12991789.74248  21282592.339    21282592.3384   21282598.1014
        -0.000          -0.000
 -10359820.132 9  -8058357.88649  20138179.306    20138179.5984   20138183.5894
        -0.000          -0.000
 -10351268.691 9  -8051817.57746  23078640.195    23078639.8214   23078645.3454
        -0.000          -0.000
   4950214.570 9   3855280.78147  21625846.914    21625846.3884   21625851.2494
        -0.000          -0.000
 -11354107.943 9  -8835636.52948  21039462.193    21039462.1534   21039466.6754
        -0.000          -0.000
 97  3  7 23 21 59.9980000  0  6  2 24  4  5  7  9                  -0.001260449
   4344604.704 9   3384454.26646  22526480.721    22526480.1624   22526485.5664
        -0.000          -0.000
 -16822919.926 9 -13066479.02348  21264352.441    21264352.4154   21264358.1414
        -0.000          -0.000
 -10388334.865 9  -8080577.14849  20132753.142    20132753.4254   20132757.3894
        -0.000          -0.000
 -10449706.367 9  -8128522.21946  23059908.229    23059907.7784   23059913.3104
        -0.000          -0.000
   4997305.508 9   3891975.01247  21634807.962    21634807.4244   21634812.3104
        -0.000          -0.000
 -11395149.564 9  -8867617.01648  21031652.289    21031652.2404   21031656.6854
        -0.000          -0.000
 97  3  7 23 22 29.9980000  0  6  2 24  4  5  7  9                  -0.001269708
   4396897.594 9   3425201.92847  22536431.874    22536431.2134   22536436.6564
        -0.000          -0.000
 -16918408.771 9 -13140885.87848  21246181.592    21246181.5254   21246187.2444
        -0.000          -0.000
 -10416283.227 9  -8102355.08349  20127434.761    20127435.0474   20127438.9794
        -0.000          -0.000
 -10548174.759 9  -8205250.78546  23041170.190    23041169.7704   23041175.4544
        -0.000          -0.000
   5044454.423 9   3928714.41447  21643779.968    21643779.5034   21643784.5324
        -0.000          -0.000
 -11435619.792 9  -8899152.25348  21023951.120    21023951.0524   21023955.4724
        -0.000          -0.000
 97  3  7 23 22 59.9980000  0  6  2 24  4  5  7  9                  -0.001278970
   4449465.412 9   3466163.82447  22546435.231    22546434.6284   22546440.1234
        -0.000          -0.000
 -17013526.157 9 -13215003.29148  21228081.325    21228081.2654   21228086.9394
        -0.000          -0.000
 -10443671.638 9  -8123696.69349  20122222.898    20122223.1854   20122227.1574
        -0.000          -0.000
 -10646658.674 9  -8281991.44546  23022429.296    23022428.8644   23022434.5414
        -0.000          -0.000
   5091643.993 9   3965485.49847  21652759.798    21652759.3664   21652764.4934
        -0.000          -0.000
 -11475532.478 9  -8930253.05448  21016355.937    21016355.9204   21016360.2844
        -0.000          -0.000
 97  3  7 23 23 29.9980000  0  6  2 24  4  5  7  9                  -0.001288240
   4502270.987 9   3507310.99247  22556483.746    22556483.2624   22556488.7344
        -0.000          -0.000
 -17108278.242 9 -13288836.05248  21210050.626    21210050.5584   21210056.1504
        -0.000          -0.000
 -10470511.535 9  -8144610.88449  20117115.413    20117115.7114   20117119.7534
        -0.000          -0.000
 -10745149.865 9  -8358737.79046  23003687.093    23003686.6294   23003692.2004
        -0.000          -0.000
   5138863.394 9   4002279.83947  21661745.418    21661744.9764   21661750.0464
        -0.000          -0.000
 -11514919.736 9  -8960944.41948  21008860.811    21008860.7884   21008865.1284
        -0.000          -0.000
 97  3  7 23 23 59.9980000  0  6  2 24  4  5  7  9                  -0.001297502
   4555333.885 9   3548658.69146  22566581.356    22566580.8024   22566586.3674
        -0.000          -0.000
 -17202645.736 9 -13362369.13448  21192093.011    21192092.9194   21192098.5494
        -0.000          -0.000
 -10496796.884 9  -8165092.96349  20112113.454    20112113.7634   20112117.8944
        -0.000          -0.000
 -10843636.147 9  -8435480.30146  22984945.687    22984945.2444   22984950.8624
        -0.000          -0.000
   5186146.716 9   4039123.96547  21670743.268    21670742.7474   21670747.7504
        -0.000          -0.000
 -11553787.366 9  -8991230.88648  21001464.579    21001464.5394   21001468.8804
        -0.000          -0.000
 97  3  7 23 24 29.9980000  0  6  2 24  4  5  7  9                  -0.001306735
   4608674.047 9   3590222.42546  22576731.613    22576731.0054   22576736.7214
        -0.000          -0.000
 -17296600.848 9 -13435580.88648  21174213.916    21174213.8474   21174219.4414
        -0.000          -0.000
 -10522495.586 9  -8185117.91849  20107223.093    20107223.4094   20107227.6124
        -0.000          -0.000
 -10942079.816 9  -8512189.61446  22966212.481    22966212.0624   22966217.6624
        -0.000          -0.000
   5233520.292 9   4076038.42147  21679758.207    21679757.6664   21679762.7034
        -0.000          -0.000
 -11592128.984 9  -9021107.47348  20994168.447    20994168.3904   20994172.7274
        -0.000          -0.000
 97  3  7 23 24 59.9980000  0  6  2 24  4  5  7  9                  -0.001315965
   4662270.878 9   3631986.16746  22586930.486    22586929.9744   22586935.8834
        -0.000          -0.000
 -17390162.918 9 -13508486.36648  21156409.698    21156409.6134   21156415.1864
        -0.000          -0.000
 -10547607.414 9  -8204685.56749  20102444.447    20102444.7574   20102449.0144
        -0.000          -0.000
 -11040495.649 9  -8588877.22346  22947484.430    22947484.0884   22947489.7164
        -0.000          -0.000
   5280970.361 9   4113012.48247  21688787.636    21688787.1454   21688792.2054
        -0.000          -0.000
 -11629950.221 9  -9050578.56348  20986971.354    20986971.2924   20986975.6234
        -0.000          -0.000
 97  3  7 23 25 29.9980000  0  6  2 24  4  5  7  9                  -0.001325218
   4716100.213 9   3673931.06046  22597173.535    22597173.1634   22597179.3164
        -0.000          -0.000
 -17483357.927 9 -13581105.81848  21138675.167    21138675.1304   21138680.7724
        -0.000          -0.000
 -10572148.036 9  -8223808.11549  20097774.460    20097774.7604   20097779.0644
        -0.000          -0.000
 -11138912.222 9  -8665565.44446  22928756.494    22928756.0634   22928761.5384
        -0.000          -0.000
   5328490.401 9   4150041.08247  21697830.442    21697829.9354   21697835.0714
        -0.000          -0.000
 -11667269.796 9  -9079658.75348  20979869.701    20979869.6094   20979873.9814
        -0.000          -0.000
 97  3  7 23 25 59.9980000  0  6  2 24  4  5  7  9                  -0.001334493
   4770168.066 9   3716061.81946  22607462.268    22607461.8804   22607468.1994
        -0.000          -0.000
 -17576193.392 9 -13653445.11648  21121009.119    21121009.1004   21121014.7214
        -0.000          -0.000
 -10596122.409 9  -8242489.43449  20093212.207    20093212.5494   20093216.9154
        -0.000          -0.000
 -11237335.772 9  -8742259.07646  22910027.037    22910026.6584   22910032.0564
        -0.000          -0.000
   5376078.084 9   4187122.39347  21706886.068    21706885.5864   21706890.7584
        -0.000          -0.000
 -11704081.333 9  -9108343.07248  20972864.696    20972864.5784   20972868.9954
        -0.000          -0.000
 97  3  7 23 26 29.9980000  0  6  2 24  4  5  7  9                  -0.001343798
   4824486.938 9   3758388.16946  22617798.712    22617798.4444   22617804.7424
        -0.000          -0.000
 -17668673.458 9 -13725507.47448  21103410.724    21103410.6934   21103416.3114
        -0.000          -0.000
 -10619519.492 9  -8260720.91849  20088759.863    20088760.1914   20088764.6024
        -0.000          -0.000
 -11335756.069 9  -8818950.17246  22891298.294    22891297.9144   22891303.2794
        -0.000          -0.000
   5423717.310 9   4224243.84747  21715951.636    21715951.1204   21715956.1334
        -0.000          -0.000
 -11740375.409 9  -9136624.17848  20965958.061    20965957.9794   20965962.5154
        -0.000          -0.000
 97  3  7 23 26 59.9980000  0  6  2 24  4  5  7  9                  -0.001353121
   4879055.064 9   3800908.73147  22628182.794    22628182.5954   22628188.7214
        -0.000          -0.000
 -17760800.718 9 -13797294.92248  21085879.477    21085879.4294   21085885.0334
        -0.000          -0.000
 -10642329.786 9  -8278495.15949  20084419.171    20084419.4964   20084423.9544
        -0.000          -0.000
 -11434176.924 9  -8895641.70446  22872569.391    22872568.9894   22872574.3574
        -0.000          -0.000
   5471414.789 9   4261410.69447  21725028.297    21725027.7164   21725032.5754
        -0.000          -0.000
 -11776138.723 9  -9164491.69148  20959152.365    20959152.3314   20959156.9204
        -0.000          -0.000
 97  3  7 23 27 29.9980000  0  6  2 24  4  5  7  9                  -0.001362483
   4933851.332 9   3843607.09646  22638610.402    22638610.0674   22638616.0254
        -0.000          -0.000
 -17852576.477 9 -13868808.46948  21068415.074    21068415.0604   21068420.6954
        -0.000          -0.000
 -10664553.971 9  -8295812.69649  20080190.036    20080190.3744   20080194.8564
        -0.000          -0.000
 -11532589.439 9  -8972326.72946  22853842.011    22853841.6554   22853847.0394
        -0.000          -0.000
   5519158.337 9   4298613.46347  21734113.479    21734112.9474   21734117.8324
        -0.000          -0.000
 -11811364.104 9  -9191940.04848  20952449.147    20952449.1514   20952453.7664
        -0.000          -0.000
 97  3  7 23 27 59.9980000  0  6  2 24  4  5  7  9                  -0.001371875
   4988885.139 9   3886490.54646  22649082.987    22649082.6464   22649088.5894
        -0.000          -0.000
 -17943986.162 9 -13940036.77348  21051020.387    21051020.3524   21051025.9914
        -0.000          -0.000
 -10686187.374 9  -8312669.88449  20076073.320    20076073.6834   20076078.1374
        -0.000          -0.000
 -11630982.376 9  -9048996.51146  22835118.248    22835117.9574   22835123.4464
        -0.000          -0.000
   5566942.332 9   4335847.73147  21743206.458    21743205.9614   21743210.8424
        -0.000          -0.000
 -11846042.942 9  -9218962.51848  20945849.983    20945850.0304   20945854.6414
        -0.000          -0.000
 97  3  7 23 28 29.9980000  0  6  2 24  4  5  7  9                  -0.001381288
   5044163.200 9   3929564.30546  22659602.123    22659601.8344   22659607.6704
        -0.000          -0.000
 -18035009.524 9 -14010964.04448  21033699.248    21033699.1634   21033704.7234
        -0.000          -0.000
 -10707216.669 9  -8329056.34049  20072071.602    20072071.9644   20072076.3814
        -0.000          -0.000
 -11729343.939 9  -9125641.84446  22816400.731    22816400.3754   22816405.8174
        -0.000          -0.000
   5614766.800 9   4373113.54147  21752307.227    21752306.7414   21752311.6004
        -0.000          -0.000
 -11880166.868 9  -9245552.59248  20939356.487    20939356.4954   20939361.0464
        -0.000          -0.000
 97  3  7 23 28 59.9980000  0  6  2 24  4  5  7  9                  -0.001390704
   5099706.001 9   3972844.38946  22670171.851    22670171.4364   22670177.0134
        -0.000          -0.000
 -18125602.613 9 -14081556.02648  21016459.875    21016459.7884   21016465.3674
        -0.000          -0.000
 -10727618.284 9  -8344953.69349  20068189.343    20068189.6814   20068194.0514
        -0.000          -0.000
 -11827641.964 9  -9202237.66146  22797695.002    22797694.7854   22797700.2654
        -0.000          -0.000
   5662662.015 9   4410434.46247  21761421.345    21761420.8924   21761425.6954
        -0.000          -0.000
 -11913701.671 9  -9271683.60148  20932975.115    20932975.0634   20932979.6274
        -0.000          -0.000
 97  3  7 23 29 29.9980000  0  6  2 24  4  5  7  9                  -0.001400126
   5155489.697 9   4016312.17846  22680787.309    22680786.9184   22680792.2334
        -0.000          -0.000
 -18215782.964 9 -14151826.41048  20999299.147    20999299.0684   20999304.6484
        -0.000          -0.000
 -10747440.953 9  -8360399.91949  20064417.228    20064417.5634   20064421.8974
        -0.000          -0.000
 -11925908.001 9  -9278808.55446  22778995.618    22778995.3594   22779000.7684
        -0.000          -0.000
   5710585.191 9   4447777.18147  21770540.716    21770540.2794   21770545.0664
        -0.000          -0.000
 -11946697.422 9  -9297394.58048  20926696.232    20926696.1804   20926700.7284
        -0.000          -0.000
 97  3  7 23 29 59.9980000  0  6  2 24  4  5  7  9                  -0.001409545
   5211534.732 9   4059983.61146  22691452.513    22691452.1544   22691457.2014
        -0.000          -0.000
 -18305544.234 9 -14221770.22748  20982218.048    20982217.9634   20982223.6074
        -0.000          -0.000
 -10766690.268 9  -8375399.37749  20060754.292    20060754.5894   20060758.9144
        -0.000          -0.000
 -12024156.546 9  -9355365.82346  22760299.716    22760299.2934   22760304.6104
        -0.000          -0.000
   5758540.202 9   4485144.71947  21779666.196    21779665.7314   21779670.5894
        -0.000          -0.000
 -11979163.518 9  -9322692.84048  20920518.154    20920518.1274   20920522.6764
        -0.000          -0.000
 97  3  7 23 30 29.9980000  0  6  2 24  4  5  7  9                  -0.001418981
   5267826.121 9   4103846.99346  22702164.539    22702164.1794   22702169.2084
        -0.000          -0.000
 -18394911.740 9 -14291407.22348  20965211.991    20965211.9364   20965217.4734
        -0.000          -0.000
 -10785377.993 9  -8389961.23549  20057198.079    20057198.4204   20057202.7474
        -0.000          -0.000
 -12122412.762 9  -9431929.08746  22741602.057    22741601.7364   22741606.9804
        -0.000          -0.000
   5806510.892 9   4522524.47147  21788794.712    21788794.2714   21788799.2804
        -0.000          -0.000
 -12011112.454 9  -9347588.12148  20914438.418    20914438.4054   20914442.9914
        -0.000          -0.000
 97  3  7 23 30 59.9980000  0  6  2 24  4  5  7  9                  -0.001428443
   5324355.137 9   4147895.52547  22712921.736    22712921.3024   22712926.5064
        -0.000          -0.000
 -18483903.847 9 -14360751.69148  20948277.371    20948277.2894   20948282.8384
        -0.000          -0.000
 -10803523.420 9  -8404100.51349  20053745.138    20053745.4814   20053749.7734
        -0.000          -0.000
 -12220695.539 9  -9508513.02346  22722899.369    22722899.0744   22722904.2994
        -0.000          -0.000
   5854493.896 9   4559913.80547  21797925.747    21797925.2504   21797930.3044
        -0.000          -0.000
 -12042560.927 9  -9372093.42448  20908453.977    20908453.9794   20908458.5554
        -0.000          -0.000
 97  3  7 23 31 29.9980000  0  6  2 24  4  5  7  9                  -0.001437911
   5381164.243 9   4192162.30146  22723731.978    22723731.6794   22723737.0634
        -0.000          -0.000
 -18572503.545 9 -14429790.38548  20931417.379    20931417.3014   20931422.8904
        -0.000          -0.000
 -10821091.230 9  -8417789.71249  20050402.152    20050402.4654   20050406.7304
        -0.000          -0.000
 -12318979.887 9  -9585098.19146  22704196.653    22704196.2124   22704201.3814
        -0.000          -0.000
   5902524.372 9   4597340.12847  21807065.703    21807065.1334   21807070.1434
        -0.000          -0.000
 -12073480.608 9  -9396186.69248  20902570.145    20902570.1824   20902574.7404
        -0.000          -0.000
 97  3  7 23 31 59.9980000  0  6  2 24  4  5  7  9                  -0.001447386
   5438258.652 9   4236651.40246  22734596.700    22734596.3864   22734601.9074
        -0.000          -0.000
 -18660725.365 9 -14498534.63848  20914629.313    20914629.2934   20914634.8504
        -0.000          -0.000
 -10838078.860 9  -8431026.81249  20047169.523    20047169.8534   20047174.1084
        -0.000          -0.000
 -12417260.387 9  -9661680.34746  22685494.428    22685493.9604   22685499.3094
        -0.000          -0.000
   5950603.656 9   4634804.49547  21816214.736    21816214.1894   21816219.3054
        -0.000          -0.000
 -12103857.467 9  -9419856.97648  20896789.629    20896789.6744   20896794.1434
        -0.000          -0.000
 97  3  7 23 32 29.9980000  0  6  2 24  4  5  7  9                  -0.001456863
   5495631.258 9   4281357.26946  22745514.471    22745513.9094   22745519.5984
        -0.000          -0.000
 -18748575.025 9 -14566988.88848  20897912.037    20897912.0074   20897917.5804
        -0.000          -0.000
 -10854496.479 9  -8443819.75449  20044045.360    20044045.6564   20044049.9174
        -0.000          -0.000
 -12515529.684 9  -9738253.78147  22666794.378    22666793.9464   22666799.3594
        -0.000          -0.000
   5998735.236 9   4672309.62147  21825373.832    21825373.3084   21825378.5124
        -0.000          -0.000
 -12133692.884 9  -9443105.35348  20891112.192    20891112.2144   20891116.6684
        -0.000          -0.000
 97  3  7 23 32 59.9980000  0  7  2 24  4  5  7  9 16               -0.001466194
   5553288.922 9   4326285.27546  22756485.945    22756485.6834   22756491.4744
        -0.000          -0.000
 -18836049.984 9 -14635151.17648  20881266.114    20881266.1004   20881271.5874
        -0.000          -0.000
 -10870350.390 9  -8456173.43849  20041028.420    20041028.7454   20041033.0194
        -0.000          -0.000
 -12613772.699 9  -9814806.74347  22648099.380    22648098.9384   22648104.2794
        -0.000          -0.000
   6046919.430 9   4709855.72347  21834543.101    21834542.5704   21834547.7704
        -0.000          -0.000
 -12162987.467 9  -9465932.30048  20885537.682    20885537.6634   20885542.0604
        -0.000          -0.000
  -5495006.09219  -4266305.42255  24229368.270    24229367.4875   24229373.5585
        -0.000          -0.000
 97  3  7 23 33 29.9980000  0  7  2 24  4  5  7  9 16               -0.001475684
   5611250.346 9   4371449.98146  22767515.493    22767515.3974   22767521.1644
        -0.000          -0.000
 -18923119.721 9 -14702997.68948  20864697.216    20864697.2114   20864702.8114
        -0.000          -0.000
 -10885611.912 9  -8468065.52449  20038124.293    20038124.6254   20038128.8504
        -0.000          -0.000
 -12711964.941 9  -9891320.14246  22629414.055    22629413.5134   22629418.7914
        -0.000          -0.000
   6095165.913 9   4747450.37547  21843724.150    21843723.6254   21843728.8814
        -0.000          -0.000
 -12191715.972 9  -9488318.15348  20880070.853    20880070.7984   20880075.2254
        -0.000          -0.000
  -5531838.117 9  -4295005.70345  24222359.446    24222358.6894   24222363.9384
        -0.000          -0.000
 97  3  7 23 33 59.9980000  0  7  2 24  4  5  7  9 16               -0.001485183
   5669444.034 9   4416795.68346  22778589.501    22778589.2214   22778595.2354
        -0.000          -0.000
 -19009823.451 9 -14770559.02448  20848198.114    20848198.0734   20848203.6074
        -0.000          -0.000
 -10900338.283 9  -8479540.61449  20035321.993    20035322.2954   20035326.4844
        -0.000          -0.000
 -12810153.034 9  -9967830.32546  22610729.402    22610728.9784   22610734.0774
        -0.000          -0.000
   6143412.608 9   4785045.19847  21852905.181    21852904.6294   21852909.9594
        -0.000          -0.000
 -12219944.528 9  -9510314.43248  20874699.111    20874699.0374   20874703.4654
        -0.000          -0.000
  -5568265.243 9  -4323390.44245  24215427.687    24215427.2164   24215431.8824
        -0.000          -0.000
 97  3  7 23 34 29.9980000  0  7  2 24  4  5  7  9 16               -0.001494677
   5727873.871 9   4462325.38846  22789707.983    22789707.8944   22789714.2054
        -0.000          -0.000
 -19096123.834 9 -14837806.04848  20831775.557    20831775.5724   20831781.1454
        -0.000          -0.000
 -10914515.451 9  -8490587.74649  20032624.192    20032624.5034   20032628.6224
        -0.000          -0.000
 -12908315.189 9 -10044320.28746  22592049.715    22592049.2594   22592054.4094
        -0.000          -0.000
   6191672.108 9   4822649.98947  21862088.699    21862088.1424   21862093.5174
        -0.000          -0.000
 -12247660.338 9  -9531911.17048  20869424.952    20869424.8984   20869429.2944
        -0.000          -0.000
  -5604259.911 9  -4351438.22745  24208578.134    24208577.6204   24208582.7334
        -0.000          -0.000
 97  3  7 23 34 59.9980000  0  7  2 24  4  5  7  9 16               -0.001504144
   5786566.491 9   4508059.83746  22800876.735    22800876.6724   22800883.0844
        -0.000          -0.000
 -19181976.196 9 -14904703.96648  20815438.464    20815438.4024   20815443.9554
        -0.000          -0.000
 -10928100.147 9  -8501173.21649  20030039.125    20030039.4424   20030043.5024
        -0.000          -0.000
 -13006414.264 9 -10120761.07847  22573382.073    22573381.6034   22573386.8304
        -0.000          -0.000
   6239971.960 9   4860286.22047  21871279.957    21871279.3684   21871284.6364
        -0.000          -0.000
 -12274829.178 9  -9553081.69748  20864254.892    20864254.8374   20864259.2734
        -0.000          -0.000
  -5639786.576 9  -4379121.35445  24201817.678    24201817.3094   24201823.0134
        -0.000          -0.000
 97  3  7 23 35 29.9980000  0  7  2 24  4  5  7  9 16               -0.001513627
   5845463.997 9   4553953.94746  22812084.730    22812084.5124   22812090.9514
        -0.000          -0.000
 -19267410.909 9 -14971276.44348  20799180.739    20799180.7174   20799186.2944
        -0.000          -0.000
 -10941122.397 9  -8511320.42049  20027561.133    20027561.4084   20027565.4384
        -0.000          -0.000
 -13104493.127 9 -10197186.14847  22554718.306    22554717.7934   22554723.0234
        -0.000          -0.000
   6288278.891 9   4897927.96447  21880472.492    21880471.9044   21880477.0704
        -0.000          -0.000
 -12301476.429 9  -9573845.79648  20859184.128    20859184.0774   20859188.4954
        -0.000          -0.000
  -5674888.107 9  -4406473.19245  24195137.994    24195137.6434   24195143.7584
        -0.000          -0.000
 97  3  7 23 35 59.9980000  0  7  2 24  4  5  7  9 16               -0.001523135
   5904565.302 9   4600006.84846  22823331.473    22823331.1764   22823337.5614
        -0.000          -0.000
 -19352419.087 9 -15037516.55148  20783004.183    20783004.1364   20783009.7414
        -0.000          -0.000
 -10953576.689 9  -8521025.05449  20025191.199    20025191.4884   20025195.4624
        -0.000          -0.000
 -13202542.851 9 -10273588.49647  22536060.090    22536059.6214   22536064.7074
        -0.000          -0.000
   6336616.714 9   4935593.79947  21889670.802    21889670.2374   21889675.4024
        -0.000          -0.000
 -12327586.433 9  -9594191.25148  20854215.528    20854215.4574   20854219.9034
        -0.000          -0.000
  -5709574.110 9  -4433501.24745  24188536.934    24188536.8364   24188543.4284
        -0.000          -0.000
 97  3  7 23 36 29.9980000  0  7  2 24  4  5  7  9 16               -0.001532670
   5963886.068 9   4646230.76346  22834620.054    22834619.6024   22834626.1414
        -0.000          -0.000
 -19436986.426 9 -15103413.16248  20766911.594    20766911.5564   20766917.0774
        -0.000          -0.000
 -10965439.947 9  -8530269.14549  20022933.739    20022934.0114   20022937.9574
        -0.000          -0.000
 -13300556.527 9 -10349962.74747  22517408.698    22517408.2034   22517413.3714
        -0.000          -0.000
   6385007.226 9   4973300.69047  21898879.234    21898878.6424   21898883.9054
        -0.000          -0.000
 -12353121.976 9  -9614089.08248  20849356.237    20849356.2014   20849360.7004
        -0.000          -0.000
  -5743837.937 9  -4460200.29745  24182016.585    24182016.4194   24182023.1044
        -0.000          -0.000
 97  3  7 23 36 59.9980000  0  7  2 24  4  5  7  9 16               -0.001542262
   6023408.319 9   4692611.69746  22845947.040    22845946.4214   22845953.0044
        -0.000          -0.000
 -19521142.596 9 -15168989.37348  20750897.211    20750897.1834   20750902.6634
        -0.000          -0.000
 -10976716.681 9  -8539056.20449  20020787.818    20020788.1174   20020792.0514
        -0.000          -0.000
 -13398565.497 9 -10426333.33347  22498758.250    22498757.7544   22498762.8964
        -0.000          -0.000
   6433435.075 9   5011036.66547  21908094.787    21908094.2524   21908099.5094
        -0.000          -0.000
 -12378097.638 9  -9633550.63848  20844603.505    20844603.4914   20844608.0034
        -0.000          -0.000
  -5777708.730 9  -4486593.09445  24175571.192    24175571.0804   24175577.4414
        -0.000          -0.000
 97  3  7 23 37 29.9980000  0  7  2 24  4  5  7  9 16               -0.001551909
   6083142.408 9   4739157.71046  22857314.232    22857313.4914   22857320.0974
        -0.000          -0.000
 -19604875.999 9 -15234236.15248  20734963.292    20734963.2044   20734968.7144
        -0.000          -0.000
 -10987398.172 9  -8547379.43649  20018755.210    20018755.4844   20018759.4244
        -0.000          -0.000
 -13496559.158 9 -10502692.01147  22480110.589    22480110.1644   22480115.1714
        -0.000          -0.000
   6481903.587 9   5048804.32047  21917318.072    21917317.5674   21917322.7654
        -0.000          -0.000
 -12402508.847 9  -9652572.36148  20839958.192    20839958.1874   20839962.6904
        -0.000          -0.000
  -5811182.619 9  -4512676.62145  24169201.641    24169201.4104   24169207.4654
        -0.000          -0.000
 97  3  7 23 37 59.9980000  0  7  2 24  4  5  7  9 16               -0.001561591
   6143114.667 9   4785889.30946  22868726.602    22868725.9404   22868732.4964
        -0.000          -0.000
 -19688179.141 9 -15299147.67348  20719111.172    20719111.1584   20719116.6034
        -0.000          -0.000
 -10997493.746 9  -8555246.11449  20016834.075    20016834.3544   20016838.2934
        -0.000          -0.000
 -13594519.272 9 -10579024.53247  22461469.308    22461468.9194   22461473.9434
        -0.000          -0.000
   6530417.325 9   5086607.20847  21926549.898    21926549.4164   21926554.5854
        -0.000          -0.000
 -12426369.037 9  -9671164.72448  20835417.758    20835417.7504   20835422.2414
        -0.000          -0.000
  -5844256.319 9  -4538448.27845  24162908.084    24162907.7674   24162913.6494
        -0.000          -0.000
 97  3  7 23 38 29.9980000  0  7  2 24  4  5  7  9 16               -0.001571292
   6203343.821 9   4832821.10946  22880187.976    22880187.3254   22880193.6334
        -0.000          -0.000
 -19771059.354 9 -15363729.63348  20703339.633    20703339.5964   20703344.9464
        -0.000          -0.000
 -11007002.521 9  -8562655.54149  20015024.552    20015024.8374   20015028.7954
        -0.000          -0.000
 -13692431.094 9 -10655319.42147  22442837.259    22442836.8284   22442841.9014
        -0.000          -0.000
   6578970.510 9   5124440.86147  21935789.228    21935788.7394   21935793.8764
        -0.000          -0.000
 -12449678.851 9  -9689328.21648  20830982.083    20830982.0714   20830986.4954
        -0.000          -0.000
  -5876920.747 9  -4563901.05345  24156692.082    24156691.7414   24156697.7354
        -0.000          -0.000
 97  3  7 23 38 59.9980000  0  7  2 24  4  5  7  9 16               -0.001580998
   6263838.686 9   4879959.93846  22891699.625    22891699.0574   22891705.3904
        -0.000          -0.000
 -19853513.901 9 -15427979.90848  20687649.074    20687649.0394   20687654.3804
        -0.000          -0.000
 -11015944.218 9  -8569623.08449  20013322.947    20013323.2654   20013327.2444
        -0.000          -0.000
 -13790283.228 9 -10731567.80547  22424216.656    22424216.1684   22424221.2874
        -0.000          -0.000
   6627562.908 9   5162305.06047  21945036.040    21945035.5384   21945040.6854
        -0.000          -0.000
 -12472450.366 9  -9707072.25548  20826648.800    20826648.7614   20826653.1854
        -0.000          -0.000
  -5909175.396 9  -4589034.51845  24150554.175    24150553.7004   24150559.9134
        -0.000          -0.000
 97  3  7 23 39 29.9980000  0  7  2 24  4  5  7  9 16               -0.001590686
   6324611.272 9   4927315.12446  22903264.070    22903263.6804   22903270.1414
        -0.000          -0.000
 -19935534.206 9 -15491891.81148  20672041.082    20672041.0844   20672046.4344
        -0.000          -0.000
 -11024320.796 9  -8576150.28449  20011728.880    20011729.2184   20011733.2354
        -0.000          -0.000
 -13888045.775 9 -10807746.37247  22405612.903    22405612.5184   22405617.6514
        -0.000          -0.000
   6676211.088 9   5200212.71747  21954293.568    21954293.0494   21954298.2124
        -0.000          -0.000
 -12494677.950 9  -9724392.45948  20822418.999    20822419.0094   20822423.3854
        -0.000          -0.000
  -5940995.998 8  -4613829.77445  24144498.730    24144498.1434   24144504.5304
        -0.000          -0.000
 97  3  7 23 39 59.9980000  0  7  2 24  4  5  7  9 16               -0.001600373
   6385642.120 9   4974871.57346  22914877.847    22914877.5604   22914884.0664
        -0.000          -0.000
 -20017147.041 9 -15555486.20848  20656510.749    20656510.6954   20656516.0394
        -0.000          -0.000
 -11032153.111 9  -8582253.37749  20010238.384    20010238.7304   20010242.7754
        -0.000          -0.000
 -13985746.369 9 -10883876.66747  22387021.062    22387020.7184   22387025.8504
        -0.000          -0.000
   6724900.866 9   5238152.78147  21963558.974    21963558.4554   21963563.6844
        -0.000          -0.000
 -12516376.546 9  -9741300.46548  20818289.926    20818289.9284   20818294.2834
        -0.000          -0.000
  -5972397.019 8  -4638298.07145  24138522.881    24138522.4104   24138529.0134
        -0.000          -0.000
 97  3  7 23 40 29.9980000  0  7  2 24  4  5  7  9 16               -0.001610068
   6446922.007 9   5022622.09446  22926539.027    22926538.7684   22926545.2884
        -0.000          -0.000
 -20098334.863 9 -15618749.42048  20641061.182    20641061.1414   20641066.5414
        -0.000          -0.000
 -11039421.232 9  -8587916.83949  20008855.238    20008855.6274   20008859.7064
        -0.000          -0.000
 -14083392.466 9 -10959964.49847  22368439.568    22368439.2524   22368444.3544
        -0.000          -0.000
   6773635.164 9   5276127.55347  21972832.799    21972832.2654   21972837.5034
        -0.000          -0.000
 -12537534.825 9  -9757787.44548  20814263.673    20814263.6854   20814268.0304
        -0.000          -0.000
  -6003365.777 8  -4662429.50345  24132629.699    24132629.2474   24132635.8614
        -0.000          -0.000
 97  3  7 23 40 59.9980000  0  7  2 24  4  5  7  9 16               -0.001619781
   6508434.413 9   5070553.76546  22938244.384    22938244.3144   22938250.7524
        -0.000          -0.000
 -20179099.516 9 -15681682.89848  20625692.148    20625692.1014   20625697.5104
        -0.000          -0.000
 -11046139.440 9  -8593151.79849  20007576.774    20007577.1534   20007581.2724
        -0.000          -0.000
 -14181005.592 9 -11036026.63747  22349864.460    22349864.0414   22349869.1304
        -0.000          -0.000
   6822402.350 9   5314127.95747  21982112.836    21982112.3204   21982117.5524
        -0.000          -0.000
 -12558166.059 9  -9773863.73948  20810337.657    20810337.6834   20810342.0134
        -0.000          -0.000
  -6033904.232 8  -4686225.65045  24126818.394    24126818.1314   24126824.8164
        -0.000          -0.000
 97  3  7 23 41 29.9980000  0  7  2 24  4  5  7  9 16               -0.001629519
   6570181.337 9   5118668.21446  22949994.645    22949994.4794   22950000.7804
        -0.000          -0.000
 -20259435.620 9 -15744282.43948  20610404.655    20610404.5944   20610409.9974
        -0.000          -0.000
 -11052292.570 9  -8597946.43349  20006405.790    20006406.1934   20006410.3464
        -0.000          -0.000
 -14278595.955 9 -11112071.04347  22331293.471    22331293.2084   22331298.2694
        -0.000          -0.000
   6871204.173 9   5352155.33147  21991399.602    21991399.0614   21991404.2054
        -0.000          -0.000
 -12578258.978 9  -9789520.56448  20806514.200    20806514.2104   20806518.4854
        -0.000          -0.000
  -6064002.467 8  -4709678.81545  24121090.763    24121090.5274   24121097.3184
        -0.000          -0.000
 97  3  7 23 41 59.9980000  0  7  2 24  4  5  7  9 16               -0.001639290
   6632158.031 9   5166961.68546  22961788.599    22961788.3454   22961794.5874
        -0.000          -0.000
 -20339336.694 9 -15806542.99048  20595199.902    20595199.8604   20595205.3174
        -0.000          -0.000
 -11057892.719 9  -8602310.17849  20005340.161    20005340.5514   20005344.6684
        -0.000          -0.000
 -14376195.167 9 -11188122.33447  22312720.916    22312720.5954   22312725.8004
        -0.000          -0.000
   6920020.952 9   5390194.35147  22000689.217    22000688.6304   22000693.7414
        -0.000          -0.000
 -12597813.532 9  -9804757.88548  20802793.219    20802793.1864   20802797.4414
        -0.000          -0.000
  -6093668.700 8  -4732795.33645  24115445.416    24115445.2744   24115452.2774
        -0.000          -0.000
 97  3  7 23 42 29.9980000  0  7  2 24  4  5  7  9 16               -0.001649073
   6694388.247 9   5215452.71646  22973630.857    22973630.5154   22973636.5744
        -0.000          -0.000
 -20418788.606 9 -15868453.54648  20580080.681    20580080.6574   20580086.1384
        -0.000          -0.000
 -11062926.397 9  -8606232.51249  20004382.288    20004382.6644   20004386.7774
        -0.000          -0.000
 -14473779.615 9 -11264162.13747  22294151.334    22294150.9804   22294156.0844
        -0.000          -0.000
   6968864.912 9   5428254.55847  22009983.891    22009983.2864   22009988.4924
        -0.000          -0.000
 -12616812.489 9  -9819562.27248  20799177.895    20799177.8594   20799182.0874
        -0.000          -0.000
  -6122874.202 8  -4755552.85045  24109887.845    24109887.7424   24109894.4044
        -0.000          -0.000
 97  3  7 23 42 59.9980000  0  7  2 24  4  5  7  9 16               -0.001658862
   6756874.783 9   5264143.48446  22985522.058    22985521.4554   22985527.2914
        -0.000          -0.000
 -20497803.913 9 -15930023.90448  20565044.544    20565044.5364   20565049.9494
        -0.000          -0.000
 -11067402.534 9  -8609720.40549  20003530.542    20003530.8644   20003534.9854
        -0.000          -0.000
 -14571343.505 9 -11340185.91947  22275585.581    22275585.2334   22275590.1224
        -0.000          -0.000
   7017733.162 9   5466333.71747  22019283.221    22019282.6674   22019287.9844
        -0.000          -0.000
 -12635253.449 9  -9833931.86448  20795668.713    20795668.6784   20795672.9234
        -0.000          -0.000
  -6151622.677 8  -4777954.21845  24104417.339    24104417.1394   24104423.7314
        -0.000          -0.000
 97  3  7 23 43 29.9980000  0  7  2 24  4  5  7  9 16               -0.001668662
   6819609.142 9   5313027.36846  22997459.827    22997459.2404   22997465.3124
        -0.000          -0.000
 -20576379.187 9 -15991251.36648  20550092.112    20550092.0874   20550097.5244
        -0.000          -0.000
 -11071318.777 9  -8612772.01849  20002785.280    20002785.5904   20002789.7184
        -0.000          -0.000
 -14668878.020 9 -11416186.81447  22257025.345    22257025.0124   22257029.8444
        -0.000          -0.000
   7066606.938 9   5504417.17047  22028583.486    22028583.0194   22028588.3424
        -0.000          -0.000
 -12653145.170 9  -9847873.47148  20792264.056    20792264.0154   20792268.2884
        -0.000          -0.000
  -6179919.971 8  -4800004.02745  24099032.544    24099032.4474   24099038.7564
        -0.000          -0.000
 97  3  7 23 43 59.9980000  0  7  2 24  4  5  7  9 16               -0.001678463
   6882587.985 9   5362101.74246  23009444.098    23009443.6634   23009449.7394
        -0.000          -0.000
 -20654511.164 9 -16052133.40848  20535224.087    20535224.0704   20535229.5354
        -0.000          -0.000
 -11074665.138 9  -8615379.56649  20002148.393    20002148.7114   20002152.8734
        -0.000          -0.000
 -14766347.865 9 -11492137.30547  22238477.361    22238477.0824   22238481.8914
        -0.000          -0.000
   7115490.487 9   5542508.21947  22037885.850    22037885.2994   22037890.4964
        -0.000          -0.000
 -12670495.094 9  -9861392.90148  20788962.492    20788962.4314   20788966.7164
        -0.000          -0.000
  -6207755.793 8  -4821694.24145  24093735.886    24093735.5544   24093741.3324
        -0.000          -0.000
 97  3  7 23 44 29.9980000  0  7  2 24  4  5  7  9 16               -0.001688260
   6945802.147 9   5411359.48946  23021473.392    23021472.9464   23021478.9744
        -0.000          -0.000
 -20732202.587 9 -16112672.15548  20520439.833    20520439.8254   20520445.3234
        -0.000          -0.000
 -11077439.907 9  -8617541.71849  20001620.327    20001620.6764   20001624.8914
        -0.000          -0.000
 -14863721.280 9 -11568012.67047  22219947.817    22219947.5214   22219952.3254
        -0.000          -0.000
   7164383.980 9   5580607.01247  22047190.167    22047189.5284   22047194.5254
        -0.000          -0.000
 -12687307.771 9  -9874493.69448  20785763.153    20785763.0764   20785767.3794
        -0.000          -0.000
  -6235129.553 8  -4843024.42345  24088527.018    24088526.4604   24088532.0404
        -0.000          -0.000
 97  3  7 23 44 59.9980000  0  7  2 24  4  5  7  9 16               -0.001698060
   7009233.113 9   5460786.18146  23033543.958    23033543.5394   23033549.4624
        -0.000          -0.000
 -20809442.096 9 -16172858.77348  20505741.708    20505741.7004   20505747.0784
        -0.000          -0.000
 -11079652.876 9  -8619266.10549  20001199.181    20001199.5484   20001203.7994
        -0.000          -0.000
 -14960994.182 9 -11643809.69247  22201437.323    22201436.9854   22201441.9124
        -0.000          -0.000
   7213276.226 9   5618704.86047  22056494.015    22056493.3884   22056498.4174
        -0.000          -0.000
 -12703582.486 9  -9887175.29648  20782666.208    20782666.1104   20782670.4314
        -0.000          -0.000
  -6262057.082 8  -4864006.89345  24083403.034    24083402.4484   24083408.0314
        -0.000          -0.000
 97  3  7 23 45 29.9980000  0  7  2 24  4  5  7  9 16               -0.001707868
   7072873.489 9   5510376.04346  23045654.259    23045653.9564   23045659.9104
        -0.000          -0.000
 -20886230.597 9 -16232693.95248  20491129.394    20491129.3564   20491134.7024
        -0.000          -0.000
 -11081312.188 9  -8620559.07049  20000883.420    20000883.7964   20000888.0684
        -0.000          -0.000
 -15058175.618 9 -11719535.45347  22182944.381    22182944.0174   22182948.9574
        -0.000          -0.000
   7262164.981 9   5656799.98147  22065797.062    22065796.4774   22065801.7414
        -0.000          -0.000
 -12719323.809 9  -9899441.27048  20779670.671    20779670.6034   20779674.9804
        -0.000          -0.000
  -6288541.756 8  -4884644.29245  24078363.121    24078362.2484   24078368.3074
        -0.000          -0.000
 97  3  7 23 45 59.9980000  0  7  2 24  4  5  7  9 16               -0.001717687
   7136733.299 9   5560136.88946  23057806.548    23057806.1134   23057812.1364
        -0.000          -0.000
 -20962583.041 9 -16292189.34048  20476599.943    20476599.9154   20476605.3264
        -0.000          -0.000
 -11082433.739 9  -8621433.00049  20000669.957    20000670.3444   20000674.6654
        -0.000          -0.000
 -15155281.214 9 -11795202.12847  22164465.765    22164465.4004   22164470.3364
        -0.000          -0.000
   7311066.191 9   5694904.81447  22075102.407    22075102.0254   22075107.3114
        -0.000          -0.000
 -12734525.274 9  -9911286.57348  20776777.913    20776777.8464   20776782.2704
        -0.000          -0.000
  -6314598.040 8  -4904947.89545  24073404.209    24073403.7094   24073410.1434
        -0.000          -0.000
 97  3  7 23 46 29.9980000  0  7  2 24  4  5  7  9 16               -0.001727515
   7200829.334 9   5610081.81546  23070003.737    23070003.1394   23070009.3964
        -0.000          -0.000
 -21038493.777 9 -16351340.54548  20462154.612    20462154.5954   20462160.0024
        -0.000          -0.000
 -11083024.907 9  -8621893.64449  20000557.509    20000557.8524   20000562.1584
        -0.000          -0.000
 -15252330.283 9 -11870824.73947  22145997.855    22145997.5554   22146002.4624
        -0.000          -0.000
   7359983.486 9   5733022.16147  22084411.199    22084410.7904   22084415.9374
        -0.000          -0.000
 -12749170.476 9  -9922698.42448  20773990.972    20773990.8954   20773995.4244
        -0.000          -0.000
  -6340233.475 8  -4924923.52645  24068525.655    24068525.6264   24068531.8754
        -0.000          -0.000
 97  3  7 23 46 59.9980000  0  7  2 24  4  5  7  9 16               -0.001737360
   7265178.872 9   5660224.24546  23082248.792    23082248.4624   23082254.7784
        -0.000          -0.000
 -21113960.205 9 -16410145.53648  20447793.784    20447793.7674   20447799.1574
        -0.000          -0.000
 -11083071.956 9  -8621930.30149  20000548.611    20000548.9084   20000553.1834
        -0.000          -0.000
 -15349345.295 9 -11946420.83347  22127536.646    22127536.2464   22127541.0384
        -0.000          -0.000
   7408930.154 9   5771162.40247  22093725.619    22093725.1224   22093730.2364
        -0.000          -0.000
 -12763258.368 9  -9933676.00948  20771310.105    20771310.0414   20771314.5834
        -0.000          -0.000
  -6365445.338 8  -4944569.07945  24063728.635    24063728.1184   24063734.2604
        -0.000          -0.000
 97  3  7 23 47 29.9980000  0  7  2 24  4  5  7  9 16               -0.001747229
   7329782.337 9   5710564.57046  23094542.337    23094541.9914   23094548.4704
        -0.000          -0.000
 -21188995.993 9 -16468614.96048  20433514.939    20433514.9224   20433520.2984
        -0.000          -0.000
 -11082576.700 9  -8621544.38649  20000642.917    20000643.1934   20000647.4074
        -0.000          -0.000
 -15446335.573 9 -12021997.65247  22109080.062    22109079.5734   22109084.3414
        -0.000          -0.000
   7457911.850 9   5809329.93547  22103046.352    22103045.9204   22103051.1454
        -0.000          -0.000
 -12776799.305 9  -9944227.40448  20768733.333    20768733.2754   20768737.8474
        -0.000          -0.000
  -6390233.811 8  -4963884.73845  24059011.644    24059011.0334   24059017.0014
        -0.000          -0.000
 97  3  7 23 47 59.9980000  0  7  2 24  4  5  7  9 16               -0.001757123
   7394648.169 8   5761109.32545  23106885.554    23106885.4564   23106891.9484
        -0.000          -0.000
 -21263582.484 9 -16526734.28848  20419321.591    20419321.5584   20419326.9454
        -0.000          -0.000
 -11081513.898 9  -8620716.22149  20000845.238    20000845.4934   20000849.6684
        -0.000          -0.000
 -15543281.901 9 -12097540.22047  22090631.796    22090631.3044   22090636.1104
        -0.000          -0.000
   7506944.486 9   5847537.17947  22112376.732    22112376.4204   22112381.8074
        -0.000          -0.000
 -12789782.282 9  -9954344.01948  20766262.793    20766262.7064   20766267.2844
        -0.000          -0.000
  -6414585.169 8  -4982859.79545  24054377.318    24054377.0224   24054382.8564
        -0.000          -0.000
 97  3  7 23 48 29.9980000  0  7  2 24  4  5  7  9 16               -0.001767056
   7459739.039 9   5811829.44045  23119271.816    23119271.9014   23119278.3244
        -0.000          -0.000
 -21337723.969 9 -16584506.84348  20405212.845    20405212.8454   20405218.2574
        -0.000          -0.000
 -11079891.206 9  -8619451.77649  20001154.019    20001154.2794   20001158.4574
        -0.000          -0.000
 -15640190.667 9 -12173053.50647  22072190.466    22072190.1014   22072195.0884
        -0.000          -0.000
   7556002.497 9   5885764.16947  22121712.243    22121711.8874   22121717.2714
        -0.000          -0.000
 -12802237.577 9  -9964049.45048  20763892.615    20763892.5264   20763897.0924
        -0.000          -0.000
  -6438502.016 8  -5001496.29645  24049826.352    24049825.6034   24049831.5654
        -0.000          -0.000
 97  3  7 23 48 59.9980000  0  7  2 24  4  5  7  9 16               -0.001777033
   7525036.504 9   5862710.55245  23131697.768    23131697.6794   23131704.0154
        -0.000          -0.000
 -21411424.868 9 -16641936.09748  20391188.038    20391187.9944   20391193.4004
        -0.000          -0.000
 -11077704.027 9  -8617747.47549  20001570.230    20001570.4914   20001574.6704
        -0.000          -0.000
 -15737048.288 9 -12248526.95047  22053759.128    22053758.7214   22053763.7384
        -0.000          -0.000
   7605077.217 9   5924004.20647  22131051.136    22131050.6824   22131055.8414
        -0.000          -0.000
 -12814172.512 9  -9973349.40948  20761621.548    20761621.4194   20761625.9644
        -0.000          -0.000
  -6461975.289 8  -5019787.11845  24045359.489    24045358.7554   24045364.9284
        -0.000          -0.000
 97  3  7 23 49 29.9980000  0  7  2 24  4  5  7  9 16               -0.001787041
   7590535.372 9   5913748.58646  23144161.813    23144161.6804   23144168.1354
        -0.000          -0.000
 -21484683.188 9 -16699020.47948  20377247.410    20377247.3754   20377252.7794
        -0.000          -0.000
 -11074963.948 9  -8615612.33949  20002091.648    20002091.9404   20002096.1324
        -0.000          -0.000
 -15833836.658 9 -12323946.43247  22035340.889    22035340.4814   22035345.4124
        -0.000          -0.000
   7654154.141 9   5962245.96247  22140390.228    22140389.7584   22140394.8284
        -0.000          -0.000
 -12825587.817 9  -9982244.46248  20759449.291    20759449.1924   20759453.7184
        -0.000          -0.000
  -6484996.538 8  -5037725.72145  24040978.872    24040977.9184   24040984.4224
        -0.000          -0.000
 97  3  7 23 49 59.9980000  0  7  2 24  4  5  7  9 16               -0.001797073
   7656243.991 9   5964950.04146  23156665.772    23156665.6534   23156672.2204
        -0.000          -0.000
 -21557482.896 9 -16755747.50248  20363394.085    20363394.0364   20363399.4264
        -0.000          -0.000
 -11071667.048 9  -8613043.32049  20002719.012    20002719.3154   20002723.5494
        -0.000          -0.000
 -15930540.339 9 -12399299.92547  22016938.765    22016938.3214   22016943.1814
        -0.000          -0.000
   7703228.938 9   6000486.04447  22149728.742    22149728.3134   22149733.4534
        -0.000          -0.000
 -12836489.033 9  -9990738.92748  20757374.885    20757374.7584   20757379.2724
        -0.000          -0.000
  -6507554.458 8  -5055303.31145  24036685.938    24036685.1704   24036691.9124
        -0.000          -0.000
 97  3  7 23 50 29.9980000  0  7  2 24  4  5  7  9 16               -0.001807106
   7722173.082 9   6016323.32646  23169212.150    23169211.7784   23169218.1744
        -0.000          -0.000
 -21629818.683 9 -16812113.03048  20349629.079    20349629.0354   20349634.3604
        -0.000          -0.000
 -11067823.764 9  -8610048.54549  20003450.386    20003450.6594   20003454.8764
        -0.000          -0.000
 -16027150.673 9 -12474580.67847  21998554.348    21998553.9684   21998558.7594
        -0.000          -0.000
   7752286.925 9   6038713.02047  22159064.060    22159063.7294   22159068.8744
        -0.000          -0.000
 -12846869.891 9  -9998827.91748  20755399.491    20755399.3864   20755403.8484
        -0.000          -0.000
  -6529632.781 8  -5072507.19745  24032484.255    24032483.8374   24032490.4774
        -0.000          -0.000
 97  3  7 23 50 59.9980000  0  7  2 24  4  5  7  9 16               -0.001817144
   7788331.204 9   6067875.03546  23181801.635    23181801.2034   23181807.7124
        -0.000          -0.000
 -21701690.158 9 -16868116.75548  20335952.446    20335952.3834   20335957.6744
        -0.000          -0.000
 -11063439.555 9  -8606632.27549  20004284.709    20004284.9824   20004289.1654
        -0.000          -0.000
 -16123675.322 9 -12549794.66947  21980186.264    21980185.9744   21980190.7454
        -0.000          -0.000
   7801325.071 9   6076924.54247  22168395.896    22168395.4694   22168400.6814
        -0.000          -0.000
 -12856728.615 9 -10006510.04948  20753523.447    20753523.3554   20753527.8014
        -0.000          -0.000
  -6551243.439 8  -5089346.64945  24028371.767    24028371.2764   24028378.0534
        -0.000          -0.000
 97  3  7 23 51 29.9980000  0  7  2 24  4  5  7  9 16               -0.001827189
   7854714.473 9   6119602.18946  23194433.683    23194433.4484   23194440.2054
        -0.000          -0.000
 -21773082.677 9 -16923747.26448  20322366.893    20322366.8284   20322372.1114
        -0.000          -0.000
 -11058533.642 9  -8602809.47449  20005218.306    20005218.5854   20005222.7654
        -0.000          -0.000
 -16220121.773 9 -12624947.72047  21961833.161    21961832.8104   21961837.6204
        -0.000          -0.000
   7850342.902 9   6115120.24847  22177723.784    22177723.3524   22177728.5444
        -0.000          -0.000
 -12866071.749 9 -10013790.42548  20751745.596    20751745.4854   20751749.8354
        -0.000          -0.000
  -6572407.403 8  -5105838.03745  24024344.105    24024343.5944   24024350.5564
        -0.000          -0.000
 97  3  7 23 51 59.9980000  0  7  2 24  4  5  7  9 16               -0.001837243
   7921323.139 9   6171504.98246  23207109.069    23207108.7034   23207115.4874
        -0.000          -0.000
 -21843986.457 9 -16978996.94048  20308874.301    20308874.2394   20308879.5424
        -0.000          -0.000
 -11053100.138 9  -8598575.56549  20006252.243    20006252.5404   20006256.6834
        -0.000          -0.000
 -16316481.190 9 -12700032.94547  21943496.509    21943496.1744   21943501.0124
        -0.000          -0.000
   7899357.111 9   6153313.13147  22187050.876    22187050.4154   22187055.5094
        -0.000          -0.000
 -12874887.272 9 -10020659.67448  20750068.062    20750067.9574   20750072.3114
        -0.000          -0.000
  -6593127.256 8  -5121983.40445  24020400.774    24020400.5824   24020407.5574
        -0.000          -0.000
 97  3  7 23 52 29.9980000  0  7  2 24  4  5  7  9 16               -0.001847308
   7988155.614 9   6223582.19446  23219826.961    23219826.5984   23219833.2654
        -0.000          -0.000
 -21914411.937 9 -17033873.91348  20295472.774    20295472.7274   20295477.9794
        -0.000          -0.000
 -11047145.958 9  -8593935.93649  20007385.277    20007385.6054   20007389.7054
        -0.000          -0.000
 -16412762.494 9 -12775057.32047  21925174.739    21925174.4384   21925179.2394
        -0.000          -0.000
   7948379.132 9   6191512.08147  22196379.434    22196378.9964   22196384.0884
        -0.000          -0.000
 -12883162.242 9 -10027107.71548  20748493.364    20748493.3074   20748497.6484
        -0.000          -0.000
  -6613412.186 8  -5137789.81045  24016541.421    24016541.0934   24016547.3804
        -0.000          -0.000
 97  3  7 23 52 59.9980000  0  7  2 24  4  5  7  9 16               -0.001857393
   8055206.434 9   6275829.53546  23232586.507    23232586.0254   23232592.5914
        -0.000          -0.000
 -21984370.831 9 -17088387.31348  20282160.011    20282159.9634   20282165.2444
        -0.000          -0.000
 -11040674.882 9  -8588893.52949  20008616.659    20008616.9834   20008621.0624
        -0.000          -0.000
 -16508963.343 9 -12850019.00947  21906868.446    21906868.1304   21906872.8124
        -0.000          -0.000
   7997425.485 9   6229729.98947  22205712.773    22205712.3054   22205717.4414
        -0.000          -0.000
 -12890894.044 9 -10033132.50748  20747022.026    20747021.9854   20747026.3234
        -0.000          -0.000
  -6633277.054 8  -5153268.89445  24012761.416    24012761.0924   24012767.2864
        -0.000          -0.000
 97  3  7 23 53 29.9980000  0  7  2 24  4  5  7  9 16               -0.001867477
   8122485.573 9   6328254.81446  23245389.517    23245388.9624   23245395.4674
        -0.000          -0.000
 -22053860.538 9 -17142535.11348  20268936.523    20268936.4774   20268941.7854
        -0.000          -0.000
 -11033678.434 9  -8583441.74849  20009948.029    20009948.3814   20009952.4334
        -0.000          -0.000
 -16605058.666 9 -12924898.45647  21888582.155    21888581.7704   21888586.5664
        -0.000          -0.000
   8046513.664 9   6267980.51347  22215054.008    22215053.4884   22215058.7344
        -0.000          -0.000
 -12898056.420 9 -10038713.59148  20745659.084    20745659.0394   20745663.3924
        -0.000          -0.000
  -6652688.369 8  -5168394.60845  24009067.340    24009066.7704   24009073.5234
        -0.000          -0.000
 97  3  7 23 53 59.9980000  0  7  2 24  4  5  7  9 16               -0.001877556
   8189998.014 9   6380861.86346  23258236.917    23258236.3284   23258242.8074
        -0.000          -0.000
 -22122911.398 9 -17196340.95348  20255796.592    20255796.5244   20255801.8344
        -0.000          -0.000
 -11026147.725 9  -8577573.65949  20011381.082    20011381.4294   20011385.4774
        -0.000          -0.000
 -16701049.410 9 -12999696.40447  21870315.663    21870315.2564   21870320.1334
        -0.000          -0.000
   8095642.990 9   6306263.08647  22224402.890    22224402.4174   22224407.7054
        -0.000          -0.000
 -12904639.802 9 -10043843.51648  20744406.286    20744406.2764   20744410.6384
        -0.000          -0.000
  -6671629.533 8  -5183153.98645  24005462.732    24005462.3144   24005469.1384
        -0.000          -0.000
 97  3  7 23 54 29.9980000  0  7  2 24  4  5  7  9 16               -0.001887641
   8257725.818 9   6433636.75646  23271124.996    23271124.5154   23271130.9964
        -0.000          -0.000
 -22191537.768 9 -17249816.02148  20242737.331    20242737.2754   20242742.6624
        -0.000          -0.000
 -11018089.852 9  -8571294.79249  20012914.470    20012914.8174   20012918.8574
        -0.000          -0.000
 -16796957.197 9 -13074429.72747  21852064.890    21852064.5404   21852069.3914
        -0.000          -0.000
   8144798.992 9   6344566.45046  22233756.924    22233756.4814   22233761.7054
        -0.000          -0.000
 -12910652.570 9 -10048528.80248  20743262.107    20743262.0984   20743266.4254
        -0.000          -0.000
  -6690102.804 8  -5197548.67745  24001948.002    24001947.4864   24001953.7464
        -0.000          -0.000
 97  3  7 23 54 59.9980000  0  7  2 24  4  5  7  9 16               -0.001897741
   8325653.557 9   6486567.44645  23284051.318    23284050.7964   23284057.2224
        -0.000          -0.000
 -22259734.931 9 -17302956.63748  20229759.808    20229759.7594   20229765.1624
        -0.000          -0.000
 -11009506.495 9  -8564606.45749  20014547.887    20014548.2174   20014552.2184
        -0.000          -0.000
 -16892791.118 9 -13149105.48747  21833828.252    21833827.9554   21833832.7264
        -0.000          -0.000
   8193958.054 9   6382872.19746  22243111.670    22243111.1554   22243116.1784
        -0.000          -0.000
 -12916108.649 9 -10052780.30248  20742223.839    20742223.8674   20742228.1644
        -0.000          -0.000
  -6708099.513 8  -5211572.05045  23998523.858    23998522.9894   23998529.1474
        -0.000          -0.000
 97  3  7 23 55 29.9980000  0  7  2 24  4  5  7  9 16               -0.001907859
   8393785.219 9   6539657.03245  23297016.320    23297015.7614   23297022.3264
        -0.000          -0.000
 -22327476.460 9 -17355742.22248  20216869.043    20216868.9734   20216874.3704
        -0.000          -0.000
 -11000382.068 9  -8557496.50949  20016284.268    20016284.5744   20016288.5364
        -0.000          -0.000
 -16988549.857 9 -13223722.66847  21815605.987    21815605.6804   21815610.3854
        -0.000          -0.000
   8243113.355 9   6421175.00346  22252465.600    22252465.0994   22252470.1134
        -0.000          -0.000
 -12921015.873 9 -10056604.12248  20741290.028    20741290.0644   20741294.3574
        -0.000          -0.000
  -6725600.276 8  -5225209.02145  23995193.287    23995192.4844   23995198.9174
        -0.000          -0.000
 97  3  7 23 55 59.9980000  0  7  2 24  4  5  7  9 16               -0.001918011
   8462109.522 8   6592896.69345  23310017.988    23310017.2714   23310024.1394
        -0.000          -0.000
 -22394754.913 9 -17408166.97148  20204066.363    20204066.2964   20204071.6624
        -0.000          -0.000
 -10990728.855 9  -8549974.51849  20018121.195    20018121.5134   20018125.4844
        -0.000          -0.000
 -17084254.462 9 -13298297.65947  21797394.016    21797393.6984   21797398.3354
        -0.000          -0.000
   8292250.892 9   6459463.96046  22261816.089    22261815.5564   22261820.8494
        -0.000          -0.000
 -12925399.894 9 -10060020.25448  20740455.774    20740455.8414   20740460.0974
        -0.000          -0.000
  -6742624.745 8  -5238474.81645  23991953.443    23991952.6774   23991959.2284
        -0.000          -0.000
 97  3  7 23 56 29.9980000  0  7  2 24  4  5  7  9 16               -0.001928196
   8530642.741 8   6646299.14045  23323059.315    23323058.7224   23323065.5364
        -0.000          -0.000
 -22461530.501 9 -17460199.87548  20191359.365    20191359.3134   20191364.6764
        -0.000          -0.000
 -10980535.018 9  -8542031.26749  20020060.969    20020061.3104   20020065.2674
        -0.000          -0.000
 -17179893.455 9 -13372821.53247  21779194.573    21779194.1974   21779198.8094
        -0.000          -0.000
   8341383.947 9   6497749.46347  22271165.932    22271165.3534   22271170.7134
        -0.000          -0.000
 -12929267.418 9 -10063033.92548  20739719.821    20739719.8314   20739724.1404
        -0.000          -0.000
  -6759163.252 8  -5251361.92745  23988806.455    23988805.5654   23988812.2064
        -0.000          -0.000
 97  3  7 23 56 59.9980000  0  7  2 24  4  5  7  9 16               -0.001938403
   8599409.124 8   6699883.28345  23336144.957    23336144.4944   23336151.4714
        -0.000          -0.000
 -22527797.354 9 -17511836.36548  20178749.231    20178749.1634   20178754.5214
        -0.000          -0.000
 -10969798.449 9  -8533665.10949  20022104.050    20022104.3964   20022108.3294
        -0.000          -0.000
 -17275446.023 9 -13447278.05747  21761011.517    21761011.1364   21761015.7734
        -0.000          -0.000
   8390520.116 9   6536037.35647  22280516.559    22280515.8704   22280521.1204
        -0.000          -0.000
 -12932623.919 9 -10065649.39448  20739081.088    20739081.0934   20739085.4114
        -0.000          -0.000
  -6775217.538 8  -5263871.75345  23985751.301    23985750.5704   23985757.1544
        -0.000          -0.000
 97  3  7 23 57 29.9980000  0  7  2 24  4  5  7  9 16               -0.001948624
   8668424.186 8   6753661.17945  23349277.892    23349277.5114   23349284.6614
        -0.000          -0.000
 -22593558.198 9 -17563078.56249  20166235.354    20166235.2964   20166240.6314
        -0.000          -0.000
 -10958510.951 9  -8524869.65049  20024252.010    20024252.3584   20024256.2994
        -0.000          -0.000
 -17370898.261 9 -13521656.39947  21742847.500    21742847.1404   21742851.8544
        -0.000          -0.000
   8439682.617 9   6574345.75746  22289871.910    22289871.2234   22289876.3384
        -0.000          -0.000
 -12935457.707 9 -10067857.55248  20738541.786    20738541.7964   20738546.1004
        -0.000          -0.000
  -6790788.265 8  -5276004.77645  23982788.188    23982787.7114   23982794.0074
        -0.000          -0.000
 97  3  7 23 57 59.9980000  0  7  2 24  4  5  7  9 16               -0.001958858
   8737684.592 8   6807630.28145  23362457.561    23362457.2184   23362464.4184
        -0.000          -0.000
 -22658833.935 9 -17613942.74949  20153813.775    20153813.7454   20153819.0884
        -0.000          -0.000
 -10946681.534 9  -8515651.92149  20026503.169    20026503.4604   20026507.3914
        -0.000          -0.000
 -17466248.817 9 -13595955.50047  21724702.818    21724702.4324   21724707.3674
        -0.000          -0.000
   8488874.564 9   6612677.14546  22299232.622    22299232.0034   22299237.1024
        -0.000          -0.000
 -12937768.456 9 -10069658.14848  20738102.092    20738102.0814   20738106.4214
        -0.000          -0.000
  -6805888.839 8  -5287771.43445  23979914.735    23979914.1514   23979920.2514
        -0.000          -0.000
 97  3  7 23 58 29.9980000  0  7  2 24  4  5  7  9 16               -0.001969097
   8807201.176 8   6861798.98545  23375685.750    23375685.6404   23375693.1604
        -0.000          -0.000
 -22723625.559 9 -17664429.71149  20141484.377    20141484.3114   20141489.6714
        -0.000          -0.000
 -10934290.794 9  -8505996.79849  20028861.091    20028861.3884   20028865.3014
        -0.000          -0.000
 -17561473.320 9 -13670156.38447  21706582.131    21706581.7564   21706586.7324
        -0.000          -0.000
   8538105.423 9   6651038.83246  22308600.935    22308600.3574   22308605.5284
        -0.000          -0.000
 -12939537.770 9 -10071036.84648  20737765.434    20737765.4144   20737769.7524
        -0.000          -0.000
  -6820503.770 8  -5299159.68445  23977133.183    23977132.5684   23977139.0594
        -0.000          -0.000
 97  3  7 23 58 59.9980000  0  7  2 24  4  5  7  9 16               -0.001979343
   8876957.155 8   6916154.21545  23388959.795    23388959.8904   23388967.6114
        -0.000          -0.000
 -22787944.530 9 -17714548.37249  20129244.887    20129244.8144   20129250.1414
        -0.000          -0.000
 -10921345.158 9  -8495909.28549  20031324.606    20031324.8624   20031328.7644
        -0.000          -0.000
 -17656570.112 9 -13744257.75147  21688485.747    21688485.4144   21688490.3794
        -0.000          -0.000
   8587378.183 9   6689433.16746  22317977.332    22317976.8464   22317982.0244
        -0.000          -0.000
 -12940767.488 9 -10071995.07348  20737531.549    20737531.5064   20737535.8274
        -0.000          -0.000
  -6834630.302 8  -5310167.37645  23974444.182    23974444.1674   23974451.0404
        -0.000          -0.000
